GEFSMW_prec_meanprecacc_012.txt.gz
Total_Precipitation_Accumulation
0.26 0.32 0.37 0.40 0.64 0.81 0.84 0.96 0.92 0.82 0.51 0.34 0.21 0.13 0.08 0.06 0.03 0.02 0.03 0.03 0.02 0.02 0.02 0.01 0.00 0.00 0.00 0.00 0.00 0.00 0.00 0.00 0.00 0.00 0.00 0.00 0.00 0.01 0.00 0.01 0.04 0.04 0.03
0.20 0.19 0.15 0.27 0.31 0.38 0.44 0.47 0.48 0.40 0.24 0.16 0.13 0.11 0.08 0.05 0.03 0.02 0.02 0.02 0.02 0.01 0.02 0.01 0.00 0.00 0.00 0.00 0.00 0.00 0.00 0.00 0.00 0.00 0.00 0.00 0.00 0.00 0.00 0.04 0.05 0.04 0.06
0.07 0.04 0.04 0.08 0.25 0.45 0.39 0.24 0.24 0.18 0.12 0.09 0.09 0.08 0.08 0.07 0.05 0.03 0.02 0.02 0.03 0.02 0.02 0.01 0.00 0.00 0.00 0.00 0.00 0.00 0.00 0.00 0.00 0.00 0.00 0.00 0.00 0.00 0.00 0.01 0.03 0.04 0.06
0.01 0.01 0.02 0.05 0.14 0.26 0.25 0.20 0.18 0.17 0.10 0.08 0.07 0.06 0.06 0.06 0.07 0.05 0.04 0.04 0.03 0.03 0.02 0.01 0.01 0.00 0.00 0.00 0.00 0.00 0.00 0.00 0.00 0.00 0.00 0.01 0.01 0.01 0.00 0.00 0.01 0.04 0.08
0.01 0.00 0.00 0.01 0.02 0.05 0.11 0.14 0.20 0.25 0.17 0.12 0.09 0.08 0.06 0.05 0.06 0.06 0.07 0.07 0.08 0.08 0.07 0.05 0.03 0.02 0.01 0.00 0.00 0.00 0.00 0.00 0.00 0.00 0.00 0.01 0.01 0.01 0.01 0.00 0.00 0.02 0.02
0.01 0.00 0.00 0.00 0.01 0.04 0.06 0.08 0.14 0.19 0.17 0.14 0.13 0.14 0.14 0.12 0.11 0.11 0.11 0.13 0.17 0.18 0.17 0.15 0.12 0.09 0.05 0.02 0.01 0.00 0.00 0.00 0.00 0.00 0.01 0.01 0.01 0.01 0.01 0.01 0.01 0.03 0.02
0.00 0.01 0.01 0.01 0.01 0.03 0.03 0.03 0.05 0.08 0.10 0.09 0.10 0.15 0.23 0.28 0.29 0.25 0.21 0.20 0.21 0.23 0.22 0.21 0.20 0.19 0.15 0.09 0.04 0.01 0.00 0.00 0.00 0.01 0.01 0.01 0.01 0.02 0.03 0.02 0.02 0.03 0.02
0.00 0.00 0.01 0.01 0.01 0.01 0.01 0.01 0.01 0.01 0.02 0.03 0.05 0.07 0.11 0.18 0.26 0.31 0.29 0.30 0.32 0.27 0.23 0.21 0.21 0.23 0.22 0.19 0.13 0.07 0.03 0.01 0.00 0.00 0.00 0.00 0.00 0.01 0.02 0.02 0.02 0.02 0.01
0.00 0.00 0.00 0.00 0.00 0.00 0.00 0.00 0.00 0.00 0.00 0.00 0.01 0.01 0.02 0.03 0.06 0.10 0.14 0.21 0.31 0.30 0.24 0.20 0.19 0.21 0.23 0.24 0.19 0.12 0.07 0.03 0.00 0.00 0.00 0.00 0.00 0.01 0.01 0.04 0.05 0.04 0.01
0.00 0.00 0.00 0.00 0.00 0.00 0.00 0.00 0.00 0.00 0.00 0.00 0.00 0.00 0.01 0.01 0.02 0.03 0.04 0.06 0.11 0.14 0.15 0.15 0.15 0.16 0.18 0.21 0.22 0.19 0.13 0.06 0.02 0.00 0.00 0.00 0.01 0.01 0.02 0.03 0.05 0.06 0.04
0.00 0.00 0.00 0.00 0.00 0.00 0.00 0.00 0.00 0.00 0.00 0.00 0.00 0.00 0.00 0.00 0.00 0.01 0.01 0.01 0.01 0.02 0.03 0.05 0.07 0.08 0.10 0.13 0.16 0.19 0.19 0.13 0.06 0.03 0.01 0.01 0.01 0.01 0.02 0.02 0.02 0.03 0.05
0.00 0.00 0.00 0.00 0.00 0.00 0.00 0.00 0.00 0.00 0.00 0.00 0.00 0.00 0.00 0.00 0.00 0.00 0.00 0.00 0.00 0.00 0.00 0.00 0.01 0.02 0.03 0.05 0.08 0.13 0.17 0.17 0.13 0.09 0.04 0.02 0.01 0.01 0.01 0.00 0.00 0.01 0.04
0.00 0.00 0.00 0.00 0.00 0.00 0.00 0.00 0.00 0.00 0.00 0.00 0.00 0.00 0.00 0.00 0.00 0.00 0.00 0.00 0.00 0.00 0.00 0.00 0.00 0.00 0.01 0.03 0.04 0.05 0.07 0.10 0.13 0.15 0.13 0.08 0.04 0.02 0.00 0.00 0.00 0.00 0.02
0.00 0.00 0.00 0.00 0.00 0.00 0.00 0.00 0.00 0.00 0.00 0.00 0.00 0.01 0.01 0.00 0.00 0.00 0.00 0.00 0.00 0.00 0.00 0.00 0.00 0.00 0.00 0.02 0.04 0.04 0.04 0.04 0.05 0.08 0.12 0.13 0.10 0.05 0.02 0.00 0.00 0.00 0.01
0.00 0.00 0.00 0.00 0.00 0.00 0.00 0.00 0.00 0.00 0.00 0.02 0.01 0.00 0.00 0.00 0.00 0.00 0.00 0.00 0.00 0.00 0.00 0.00 0.00 0.00 0.00 0.01 0.02 0.05 0.05 0.06 0.04 0.04 0.05 0.07 0.07 0.07 0.04 0.01 0.00 0.01 0.02
0.00 0.00 0.00 0.00 0.00 0.00 0.00 0.00 0.00 0.00 0.00 0.01 0.01 0.01 0.01 0.02 0.03 0.02 0.02 0.03 0.02 0.02 0.02 0.01 0.01 0.01 0.01 0.01 0.02 0.03 0.05 0.09 0.10 0.07 0.05 0.04 0.03 0.03 0.03 0.02 0.01 0.01 0.01
0.00 0.00 0.00 0.00 0.00 0.00 0.00 0.00 0.00 0.00 0.00 0.00 0.00 0.00 0.01 0.02 0.04 0.06 0.07 0.06 0.04 0.04 0.05 0.04 0.03 0.01 0.01 0.01 0.01 0.01 0.03 0.06 0.11 0.13 0.10 0.06 0.04 0.03 0.03 0.02 0.01 0.00 0.00
0.00 0.00 0.00 0.00 0.00 0.00 0.00 0.00 0.00 0.00 0.00 0.00 0.01 0.02 0.03 0.05 0.06 0.07 0.08 0.09 0.09 0.09 0.08 0.06 0.05 0.03 0.02 0.02 0.01 0.02 0.04 0.06 0.05 0.09 0.12 0.09 0.05 0.04 0.03 0.03 0.02 0.01 0.00
0.00 0.00 0.00 0.00 0.00 0.00 0.00 0.00 0.00 0.00 0.01 0.02 0.03 0.04 0.06 0.07 0.08 0.09 0.09 0.11 0.12 0.10 0.08 0.06 0.05 0.04 0.03 0.03 0.02 0.02 0.03 0.05 0.04 0.06 0.10 0.11 0.08 0.05 0.04 0.02 0.02 0.01 0.01
0.00 0.00 0.00 0.00 0.00 0.00 0.00 0.01 0.01 0.03 0.04 0.05 0.07 0.08 0.09 0.09 0.09 0.09 0.09 0.10 0.11 0.11 0.09 0.07 0.05 0.05 0.04 0.02 0.02 0.02 0.02 0.04 0.04 0.05 0.10 0.14 0.11 0.08 0.06 0.03 0.02 0.01 0.00
0.00 0.00 0.00 0.00 0.00 0.00 0.01 0.03 0.04 0.05 0.06 0.07 0.08 0.08 0.07 0.07 0.08 0.08 0.07 0.07 0.06 0.06 0.07 0.07 0.06 0.06 0.04 0.02 0.01 0.03 0.03 0.04 0.05 0.07 0.12 0.18 0.17 0.13 0.09 0.06 0.03 0.02 0.01
0.00 0.00 0.00 0.00 0.00 0.01 0.03 0.04 0.04 0.04 0.04 0.06 0.07 0.06 0.06 0.08 0.09 0.10 0.09 0.07 0.05 0.04 0.04 0.05 0.04 0.04 0.03 0.01 0.01 0.01 0.02 0.04 0.06 0.13 0.18 0.22 0.27 0.20 0.16 0.13 0.09 0.04 0.02
0.00 0.00 0.00 0.01 0.01 0.02 0.04 0.07 0.08 0.07 0.07 0.08 0.08 0.08 0.09 0.11 0.13 0.14 0.12 0.10 0.08 0.06 0.05 0.04 0.02 0.02 0.03 0.02 0.00 0.00 0.01 0.03 0.06 0.15 0.27 0.35 0.40 0.33 0.25 0.22 0.18 0.07 0.03
0.00 0.01 0.01 0.02 0.03 0.04 0.06 0.09 0.11 0.12 0.12 0.11 0.10 0.10 0.11 0.10 0.10 0.11 0.10 0.09 0.08 0.08 0.06 0.05 0.03 0.02 0.03 0.02 0.00 0.00 0.00 0.01 0.03 0.13 0.28 0.45 0.55 0.53 0.42 0.34 0.27 0.13 0.05
0.01 0.01 0.03 0.04 0.04 0.05 0.06 0.08 0.10 0.13 0.14 0.13 0.11 0.10 0.07 0.06 0.06 0.05 0.05 0.05 0.06 0.07 0.08 0.07 0.04 0.03 0.02 0.00 0.00 0.00 0.00 0.00 0.02 0.11 0.32 0.50 0.63 0.66 0.60 0.49 0.37 0.21 0.09
0.02 0.03 0.03 0.03 0.04 0.04 0.04 0.04 0.05 0.10 0.15 0.15 0.12 0.10 0.08 0.07 0.06 0.05 0.05 0.06 0.06 0.08 0.09 0.11 0.07 0.02 0.01 0.01 0.01 0.00 0.00 0.00 0.03 0.14 0.33 0.48 0.57 0.61 0.65 0.61 0.48 0.27 0.11

GEFSMW_prec_meanprecacc_018.txt.gz
Total_Precipitation_Accumulation
0.26 0.32 0.37 0.40 0.65 0.82 0.84 0.96 0.92 0.82 0.52 0.35 0.22 0.16 0.13 0.11 0.09 0.10 0.10 0.12 0.14 0.16 0.18 0.15 0.13 0.08 0.06 0.04 0.03 0.03 0.02 0.02 0.02 0.02 0.02 0.02 0.02 0.02 0.01 0.02 0.04 0.04 0.03
0.21 0.19 0.15 0.27 0.31 0.38 0.44 0.47 0.48 0.40 0.24 0.17 0.14 0.13 0.10 0.07 0.06 0.05 0.05 0.06 0.07 0.10 0.13 0.14 0.10 0.08 0.07 0.05 0.03 0.03 0.02 0.01 0.01 0.01 0.01 0.01 0.00 0.00 0.00 0.04 0.05 0.04 0.06
0.07 0.04 0.04 0.08 0.25 0.45 0.39 0.24 0.24 0.19 0.12 0.10 0.10 0.09 0.09 0.09 0.08 0.06 0.06 0.06 0.06 0.07 0.10 0.12 0.11 0.09 0.07 0.06 0.05 0.04 0.03 0.02 0.01 0.01 0.01 0.01 0.00 0.00 0.00 0.01 0.03 0.04 0.06
0.01 0.01 0.02 0.05 0.14 0.26 0.26 0.20 0.19 0.18 0.11 0.08 0.07 0.06 0.06 0.07 0.07 0.06 0.06 0.06 0.06 0.06 0.07 0.08 0.09 0.10 0.10 0.09 0.05 0.04 0.03 0.02 0.01 0.01 0.01 0.01 0.01 0.01 0.00 0.00 0.01 0.04 0.08
0.01 0.00 0.00 0.01 0.02 0.05 0.11 0.14 0.20 0.25 0.17 0.13 0.09 0.08 0.06 0.05 0.06 0.06 0.07 0.08 0.10 0.11 0.12 0.12 0.10 0.09 0.10 0.10 0.08 0.07 0.04 0.03 0.01 0.01 0.01 0.01 0.01 0.01 0.01 0.01 0.01 0.02 0.02
0.01 0.00 0.00 0.00 0.01 0.04 0.06 0.08 0.14 0.19 0.17 0.14 0.13 0.14 0.14 0.12 0.11 0.11 0.11 0.14 0.17 0.19 0.19 0.19 0.20 0.19 0.15 0.11 0.08 0.07 0.05 0.04 0.02 0.01 0.01 0.01 0.01 0.01 0.02 0.02 0.02 0.03 0.02
0.00 0.01 0.01 0.01 0.01 0.03 0.03 0.03 0.05 0.08 0.10 0.09 0.10 0.15 0.23 0.28 0.29 0.25 0.21 0.20 0.21 0.23 0.23 0.22 0.24 0.27 0.27 0.24 0.16 0.08 0.06 0.05 0.04 0.02 0.02 0.01 0.01 0.02 0.03 0.03 0.02 0.03 0.02
0.00 0.00 0.01 0.01 0.01 0.01 0.01 0.01 0.01 0.01 0.02 0.03 0.05 0.07 0.11 0.18 0.26 0.31 0.30 0.30 0.32 0.27 0.23 0.21 0.22 0.25 0.29 0.31 0.27 0.21 0.15 0.10 0.06 0.04 0.03 0.01 0.00 0.01 0.02 0.02 0.02 0.02 0.01
0.00 0.00 0.00 0.00 0.00 0.00 0.00 0.00 0.00 0.00 0.00 0.00 0.01 0.01 0.02 0.03 0.06 0.10 0.14 0.21 0.31 0.30 0.24 0.20 0.19 0.21 0.25 0.29 0.31 0.29 0.28 0.23 0.14 0.10 0.08 0.04 0.02 0.01 0.01 0.04 0.05 0.04 0.02
0.00 0.00 0.00 0.00 0.00 0.00 0.00 0.00 0.00 0.00 0.00 0.00 0.00 0.00 0.01 0.01 0.02 0.03 0.04 0.06 0.11 0.14 0.15 0.15 0.15 0.16 0.18 0.21 0.26 0.32 0.38 0.39 0.34 0.25 0.19 0.13 0.08 0.05 0.03 0.04 0.05 0.07 0.05
0.00 0.00 0.00 0.00 0.00 0.00 0.00 0.00 0.00 0.00 0.00 0.00 0.00 0.00 0.00 0.00 0.00 0.01 0.01 0.01 0.01 0.02 0.03 0.05 0.07 0.08 0.10 0.13 0.17 0.24 0.36 0.49 0.56 0.53 0.42 0.30 0.21 0.14 0.08 0.05 0.04 0.04 0.06
0.00 0.00 0.00 0.00 0.00 0.00 0.00 0.00 0.00 0.00 0.00 0.00 0.00 0.00 0.00 0.00 0.00 0.00 0.00 0.00 0.00 0.00 0.00 0.00 0.01 0.02 0.03 0.05 0.08 0.13 0.21 0.33 0.49 0.64 0.66 0.55 0.41 0.27 0.16 0.09 0.05 0.04 0.06
0.00 0.00 0.00 0.00 0.00 0.00 0.00 0.00 0.00 0.00 0.00 0.00 0.00 0.00 0.00 0.00 0.00 0.00 0.00 0.00 0.00 0.00 0.00 0.00 0.00 0.00 0.01 0.03 0.04 0.05 0.07 0.12 0.22 0.38 0.58 0.67 0.61 0.44 0.29 0.19 0.12 0.08 0.05
0.00 0.00 0.00 0.00 0.00 0.00 0.00 0.00 0.00 0.00 0.00 0.00 0.00 0.01 0.01 0.00 0.00 0.00 0.00 0.00 0.00 0.00 0.00 0.01 0.00 0.00 0.01 0.02 0.04 0.05 0.04 0.05 0.07 0.13 0.26 0.46 0.61 0.58 0.46 0.32 0.21 0.17 0.12
0.00 0.00 0.00 0.00 0.00 0.00 0.00 0.00 0.00 0.00 0.00 0.02 0.01 0.00 0.00 0.00 0.01 0.01 0.01 0.01 0.02 0.01 0.02 0.02 0.02 0.02 0.01 0.01 0.04 0.07 0.07 0.07 0.06 0.06 0.08 0.16 0.31 0.46 0.51 0.45 0.33 0.24 0.18
0.00 0.00 0.00 0.00 0.00 0.00 0.00 0.00 0.00 0.00 0.00 0.01 0.01 0.01 0.02 0.03 0.03 0.03 0.04 0.05 0.05 0.05 0.07 0.06 0.06 0.05 0.03 0.02 0.02 0.05 0.08 0.13 0.14 0.11 0.09 0.07 0.10 0.20 0.33 0.42 0.41 0.32 0.21
0.00 0.00 0.00 0.00 0.00 0.00 0.00 0.00 0.00 0.00 0.00 0.00 0.00 0.01 0.02 0.03 0.05 0.07 0.09 0.09 0.09 0.10 0.11 0.11 0.09 0.08 0.07 0.06 0.04 0.02 0.07 0.13 0.16 0.19 0.16 0.10 0.07 0.08 0.13 0.23 0.30 0.30 0.22
0.00 0.00 0.00 0.00 0.00 0.00 0.00 0.00 0.00 0.00 0.00 0.01 0.01 0.02 0.04 0.06 0.08 0.10 0.12 0.13 0.15 0.15 0.15 0.14 0.13 0.12 0.10 0.10 0.06 0.04 0.09 0.14 0.12 0.14 0.17 0.14 0.10 0.08 0.07 0.09 0.15 0.19 0.18
0.00 0.00 0.00 0.00 0.00 0.00 0.00 0.00 0.00 0.01 0.01 0.02 0.03 0.05 0.07 0.10 0.11 0.12 0.13 0.16 0.18 0.16 0.15 0.14 0.15 0.15 0.14 0.13 0.09 0.07 0.12 0.15 0.12 0.11 0.12 0.14 0.12 0.08 0.05 0.05 0.06 0.10 0.12
0.00 0.00 0.00 0.00 0.00 0.00 0.00 0.01 0.02 0.03 0.05 0.06 0.07 0.09 0.11 0.12 0.13 0.13 0.14 0.16 0.18 0.18 0.17 0.15 0.15 0.18 0.18 0.16 0.09 0.07 0.10 0.13 0.11 0.12 0.14 0.16 0.13 0.10 0.06 0.05 0.04 0.04 0.06
0.00 0.00 0.00 0.00 0.00 0.00 0.02 0.04 0.05 0.06 0.06 0.07 0.09 0.10 0.10 0.11 0.12 0.13 0.13 0.13 0.14 0.14 0.14 0.15 0.16 0.18 0.18 0.14 0.08 0.07 0.09 0.10 0.09 0.09 0.13 0.19 0.18 0.13 0.09 0.07 0.05 0.04 0.04
0.00 0.00 0.00 0.00 0.01 0.01 0.03 0.05 0.05 0.04 0.05 0.07 0.08 0.08 0.09 0.11 0.13 0.15 0.15 0.13 0.12 0.12 0.12 0.12 0.12 0.15 0.16 0.12 0.08 0.05 0.05 0.07 0.08 0.15 0.19 0.23 0.28 0.20 0.16 0.13 0.10 0.05 0.04
0.00 0.00 0.00 0.01 0.01 0.02 0.05 0.08 0.08 0.07 0.08 0.09 0.09 0.09 0.11 0.14 0.16 0.19 0.19 0.17 0.16 0.16 0.14 0.11 0.09 0.09 0.12 0.11 0.06 0.04 0.03 0.04 0.07 0.16 0.27 0.35 0.40 0.33 0.26 0.22 0.19 0.11 0.06
0.00 0.01 0.01 0.02 0.03 0.04 0.06 0.10 0.11 0.12 0.13 0.12 0.11 0.11 0.13 0.12 0.13 0.15 0.16 0.16 0.18 0.18 0.15 0.14 0.11 0.10 0.09 0.08 0.04 0.03 0.02 0.01 0.04 0.13 0.28 0.45 0.55 0.53 0.42 0.35 0.30 0.19 0.11
0.01 0.01 0.03 0.04 0.04 0.05 0.07 0.08 0.11 0.14 0.16 0.15 0.12 0.11 0.09 0.08 0.08 0.08 0.09 0.10 0.14 0.14 0.13 0.13 0.12 0.10 0.09 0.05 0.02 0.02 0.02 0.01 0.02 0.11 0.33 0.51 0.64 0.67 0.62 0.52 0.42 0.32 0.22
0.02 0.03 0.03 0.04 0.04 0.04 0.05 0.05 0.06 0.12 0.17 0.18 0.14 0.11 0.10 0.09 0.08 0.07 0.08 0.10 0.11 0.10 0.11 0.12 0.09 0.05 0.04 0.03 0.01 0.01 0.01 0.01 0.03 0.15 0.34 0.49 0.58 0.63 0.68 0.66 0.58 0.43 0.31

GEFSMW_prec_meanprecacc_024.txt.gz
Total_Precipitation_Accumulation
0.27 0.33 0.37 0.40 0.65 0.82 0.84 0.96 0.93 0.82 0.52 0.36 0.23 0.16 0.14 0.13 0.13 0.16 0.15 0.19 0.23 0.27 0.33 0.27 0.29 0.26 0.21 0.20 0.21 0.21 0.21 0.19 0.17 0.16 0.12 0.09 0.08 0.08 0.06 0.05 0.07 0.07 0.08
0.21 0.19 0.15 0.27 0.31 0.38 0.44 0.47 0.48 0.40 0.24 0.17 0.15 0.13 0.11 0.08 0.07 0.07 0.09 0.09 0.12 0.17 0.23 0.30 0.24 0.23 0.22 0.20 0.17 0.17 0.16 0.14 0.13 0.13 0.10 0.06 0.05 0.05 0.02 0.06 0.06 0.06 0.10
0.07 0.04 0.04 0.08 0.25 0.45 0.39 0.24 0.24 0.19 0.12 0.10 0.10 0.09 0.09 0.09 0.09 0.07 0.07 0.08 0.07 0.09 0.14 0.21 0.23 0.25 0.21 0.23 0.24 0.20 0.17 0.12 0.09 0.08 0.08 0.06 0.04 0.03 0.02 0.03 0.03 0.04 0.08
0.01 0.01 0.02 0.05 0.14 0.26 0.26 0.20 0.19 0.18 0.11 0.08 0.07 0.06 0.06 0.07 0.07 0.07 0.06 0.06 0.06 0.07 0.08 0.10 0.15 0.22 0.24 0.30 0.21 0.20 0.19 0.15 0.09 0.07 0.06 0.04 0.04 0.05 0.05 0.04 0.01 0.05 0.09
0.01 0.00 0.00 0.01 0.02 0.05 0.11 0.14 0.20 0.25 0.17 0.13 0.09 0.08 0.06 0.05 0.06 0.06 0.07 0.08 0.10 0.11 0.12 0.12 0.11 0.12 0.18 0.26 0.28 0.31 0.24 0.21 0.14 0.09 0.07 0.07 0.04 0.03 0.04 0.06 0.05 0.05 0.03
0.01 0.00 0.00 0.00 0.01 0.04 0.06 0.08 0.14 0.19 0.17 0.14 0.13 0.14 0.14 0.13 0.11 0.11 0.11 0.14 0.17 0.19 0.19 0.19 0.20 0.19 0.17 0.17 0.19 0.23 0.27 0.28 0.25 0.15 0.08 0.08 0.06 0.03 0.03 0.03 0.05 0.09 0.04
0.00 0.01 0.01 0.01 0.01 0.03 0.03 0.03 0.05 0.08 0.10 0.09 0.10 0.15 0.23 0.29 0.29 0.25 0.21 0.20 0.21 0.23 0.23 0.22 0.24 0.27 0.27 0.24 0.19 0.15 0.20 0.27 0.28 0.23 0.17 0.09 0.05 0.04 0.05 0.04 0.03 0.05 0.04
0.00 0.00 0.01 0.01 0.01 0.01 0.01 0.01 0.01 0.01 0.02 0.03 0.05 0.07 0.11 0.18 0.26 0.31 0.30 0.30 0.32 0.27 0.23 0.21 0.22 0.25 0.29 0.31 0.28 0.22 0.20 0.22 0.25 0.27 0.28 0.21 0.08 0.05 0.04 0.05 0.05 0.05 0.05
0.00 0.00 0.00 0.00 0.00 0.00 0.00 0.00 0.00 0.00 0.00 0.00 0.01 0.01 0.02 0.03 0.06 0.10 0.14 0.21 0.31 0.30 0.24 0.20 0.19 0.21 0.25 0.29 0.31 0.29 0.29 0.26 0.23 0.27 0.33 0.30 0.19 0.11 0.06 0.06 0.07 0.10 0.10
0.00 0.00 0.00 0.00 0.00 0.00 0.00 0.00 0.00 0.00 0.00 0.00 0.00 0.00 0.01 0.01 0.02 0.03 0.04 0.06 0.11 0.14 0.15 0.15 0.15 0.16 0.18 0.22 0.27 0.32 0.38 0.40 0.36 0.32 0.34 0.35 0.32 0.27 0.19 0.13 0.10 0.10 0.11
0.00 0.00 0.00 0.00 0.00 0.00 0.00 0.00 0.00 0.00 0.00 0.00 0.00 0.00 0.00 0.00 0.00 0.01 0.01 0.01 0.02 0.02 0.03 0.05 0.07 0.09 0.10 0.13 0.18 0.25 0.36 0.49 0.57 0.55 0.48 0.42 0.42 0.39 0.32 0.26 0.19 0.14 0.15
0.00 0.00 0.00 0.00 0.00 0.00 0.00 0.00 0.00 0.00 0.00 0.00 0.00 0.00 0.00 0.00 0.00 0.00 0.00 0.00 0.00 0.00 0.01 0.01 0.02 0.02 0.03 0.05 0.09 0.15 0.22 0.33 0.49 0.65 0.68 0.60 0.52 0.46 0.38 0.32 0.28 0.24 0.23
0.00 0.00 0.00 0.00 0.00 0.00 0.00 0.00 0.00 0.00 0.00 0.00 0.00 0.00 0.00 0.00 0.00 0.00 0.00 0.00 0.00 0.01 0.01 0.01 0.01 0.01 0.02 0.04 0.05 0.06 0.08 0.14 0.23 0.39 0.59 0.69 0.66 0.54 0.46 0.38 0.33 0.30 0.28
0.00 0.00 0.00 0.00 0.00 0.00 0.00 0.00 0.00 0.00 0.00 0.00 0.00 0.01 0.01 0.01 0.01 0.01 0.01 0.01 0.01 0.02 0.02 0.02 0.02 0.03 0.03 0.04 0.06 0.07 0.07 0.07 0.09 0.15 0.28 0.47 0.63 0.62 0.54 0.46 0.39 0.37 0.36
0.00 0.00 0.00 0.00 0.00 0.00 0.00 0.00 0.00 0.00 0.00 0.02 0.01 0.01 0.01 0.01 0.01 0.01 0.02 0.02 0.03 0.03 0.04 0.05 0.06 0.06 0.06 0.04 0.06 0.11 0.11 0.13 0.12 0.11 0.12 0.18 0.32 0.48 0.55 0.51 0.45 0.41 0.39
0.00 0.00 0.00 0.00 0.00 0.00 0.00 0.00 0.00 0.00 0.00 0.01 0.01 0.01 0.02 0.03 0.04 0.04 0.05 0.06 0.07 0.08 0.10 0.10 0.11 0.11 0.07 0.06 0.07 0.10 0.14 0.21 0.25 0.22 0.18 0.14 0.13 0.22 0.34 0.44 0.47 0.45 0.40
0.00 0.00 0.00 0.00 0.00 0.00 0.00 0.00 0.00 0.01 0.00 0.01 0.01 0.01 0.03 0.04 0.06 0.08 0.11 0.11 0.12 0.13 0.16 0.15 0.15 0.15 0.14 0.12 0.10 0.07 0.14 0.23 0.30 0.34 0.31 0.19 0.10 0.12 0.16 0.24 0.33 0.37 0.34
0.00 0.00 0.00 0.00 0.00 0.00 0.00 0.00 0.00 0.01 0.01 0.01 0.02 0.03 0.05 0.07 0.10 0.12 0.14 0.17 0.19 0.20 0.20 0.19 0.19 0.20 0.18 0.16 0.12 0.09 0.16 0.23 0.24 0.30 0.35 0.27 0.21 0.18 0.18 0.16 0.17 0.21 0.23
0.00 0.00 0.00 0.00 0.00 0.01 0.01 0.01 0.01 0.01 0.02 0.03 0.04 0.06 0.09 0.11 0.13 0.15 0.17 0.22 0.24 0.22 0.21 0.20 0.22 0.25 0.24 0.21 0.14 0.11 0.22 0.28 0.25 0.25 0.28 0.29 0.25 0.19 0.14 0.15 0.13 0.13 0.15
0.00 0.00 0.00 0.00 0.01 0.02 0.01 0.02 0.03 0.04 0.06 0.07 0.08 0.10 0.13 0.15 0.16 0.17 0.19 0.22 0.25 0.25 0.23 0.21 0.23 0.27 0.29 0.25 0.14 0.11 0.22 0.30 0.29 0.30 0.33 0.35 0.32 0.22 0.12 0.13 0.14 0.11 0.11
0.00 0.00 0.00 0.00 0.01 0.02 0.03 0.05 0.06 0.07 0.07 0.08 0.10 0.11 0.12 0.14 0.15 0.18 0.20 0.21 0.23 0.22 0.22 0.22 0.25 0.29 0.29 0.24 0.13 0.10 0.19 0.27 0.29 0.28 0.29 0.35 0.31 0.22 0.13 0.12 0.13 0.11 0.10
0.00 0.00 0.00 0.01 0.02 0.04 0.06 0.07 0.07 0.06 0.06 0.07 0.09 0.10 0.11 0.13 0.15 0.21 0.23 0.23 0.23 0.22 0.21 0.22 0.23 0.27 0.29 0.22 0.14 0.07 0.10 0.20 0.29 0.38 0.37 0.39 0.40 0.26 0.18 0.15 0.14 0.08 0.06
0.00 0.00 0.01 0.01 0.03 0.05 0.07 0.10 0.10 0.08 0.08 0.09 0.10 0.11 0.13 0.16 0.21 0.27 0.28 0.28 0.29 0.29 0.26 0.23 0.21 0.23 0.27 0.22 0.10 0.06 0.05 0.12 0.24 0.41 0.52 0.52 0.49 0.38 0.28 0.23 0.20 0.11 0.07
0.00 0.01 0.02 0.03 0.04 0.05 0.08 0.11 0.13 0.13 0.14 0.14 0.12 0.13 0.15 0.15 0.18 0.25 0.27 0.29 0.30 0.29 0.25 0.23 0.23 0.24 0.25 0.22 0.14 0.08 0.05 0.07 0.15 0.30 0.45 0.55 0.61 0.56 0.44 0.36 0.30 0.19 0.12
0.01 0.02 0.03 0.04 0.05 0.06 0.08 0.09 0.12 0.16 0.17 0.16 0.14 0.13 0.11 0.11 0.13 0.18 0.21 0.18 0.21 0.17 0.15 0.17 0.20 0.22 0.22 0.14 0.08 0.10 0.10 0.08 0.10 0.22 0.45 0.58 0.67 0.69 0.63 0.53 0.44 0.33 0.23
0.02 0.03 0.04 0.04 0.04 0.05 0.05 0.05 0.07 0.13 0.19 0.19 0.16 0.13 0.11 0.13 0.15 0.16 0.18 0.17 0.13 0.11 0.12 0.13 0.10 0.07 0.07 0.04 0.02 0.02 0.02 0.03 0.07 0.22 0.44 0.58 0.64 0.66 0.70 0.68 0.61 0.46 0.33

GEFSMW_prec_meanprecacc_030.txt.gz
Total_Precipitation_Accumulation
0.28 0.34 0.38 0.41 0.66 0.82 0.84 0.96 0.93 0.82 0.52 0.36 0.23 0.16 0.14 0.13 0.13 0.16 0.16 0.19 0.23 0.28 0.34 0.29 0.31 0.29 0.23 0.23 0.24 0.26 0.27 0.25 0.24 0.23 0.20 0.16 0.15 0.15 0.12 0.10 0.12 0.16 0.18
0.22 0.19 0.15 0.27 0.31 0.38 0.44 0.47 0.48 0.40 0.24 0.17 0.15 0.13 0.11 0.08 0.07 0.07 0.09 0.09 0.12 0.17 0.23 0.30 0.25 0.25 0.25 0.24 0.23 0.24 0.22 0.19 0.20 0.22 0.18 0.12 0.09 0.10 0.08 0.11 0.11 0.12 0.20
0.08 0.05 0.04 0.08 0.25 0.45 0.39 0.24 0.24 0.19 0.12 0.10 0.10 0.09 0.09 0.09 0.09 0.07 0.07 0.08 0.07 0.09 0.14 0.21 0.24 0.27 0.24 0.27 0.31 0.28 0.24 0.18 0.15 0.18 0.19 0.13 0.07 0.07 0.08 0.10 0.11 0.11 0.17
0.02 0.02 0.02 0.05 0.14 0.26 0.26 0.20 0.19 0.18 0.11 0.08 0.07 0.06 0.06 0.07 0.07 0.07 0.06 0.07 0.06 0.07 0.08 0.10 0.15 0.22 0.26 0.33 0.25 0.28 0.28 0.23 0.16 0.15 0.14 0.12 0.11 0.10 0.09 0.11 0.09 0.12 0.16
0.01 0.00 0.00 0.01 0.02 0.05 0.11 0.14 0.20 0.25 0.17 0.13 0.09 0.08 0.06 0.05 0.06 0.06 0.07 0.08 0.10 0.11 0.12 0.12 0.11 0.12 0.19 0.26 0.29 0.35 0.31 0.30 0.25 0.19 0.16 0.15 0.12 0.10 0.08 0.09 0.09 0.10 0.07
0.01 0.00 0.00 0.00 0.01 0.04 0.06 0.08 0.14 0.19 0.17 0.14 0.13 0.14 0.14 0.13 0.11 0.11 0.11 0.14 0.17 0.19 0.19 0.20 0.20 0.19 0.17 0.17 0.19 0.23 0.29 0.33 0.33 0.25 0.19 0.21 0.18 0.12 0.09 0.05 0.07 0.12 0.07
0.01 0.01 0.01 0.01 0.01 0.03 0.03 0.03 0.05 0.08 0.10 0.09 0.10 0.15 0.23 0.29 0.29 0.25 0.22 0.20 0.21 0.23 0.23 0.22 0.24 0.27 0.27 0.24 0.20 0.15 0.20 0.28 0.31 0.28 0.25 0.20 0.15 0.15 0.16 0.12 0.07 0.07 0.06
0.01 0.01 0.01 0.01 0.01 0.01 0.01 0.01 0.01 0.01 0.02 0.03 0.05 0.07 0.11 0.18 0.26 0.31 0.30 0.30 0.32 0.27 0.23 0.21 0.22 0.26 0.29 0.31 0.28 0.22 0.20 0.22 0.26 0.29 0.33 0.28 0.14 0.14 0.18 0.17 0.16 0.14 0.11
0.00 0.00 0.00 0.00 0.00 0.00 0.00 0.00 0.00 0.00 0.00 0.00 0.01 0.01 0.02 0.03 0.06 0.10 0.14 0.21 0.31 0.30 0.24 0.20 0.19 0.21 0.25 0.29 0.31 0.29 0.29 0.26 0.23 0.27 0.34 0.33 0.23 0.16 0.14 0.19 0.23 0.25 0.20
0.00 0.00 0.00 0.00 0.00 0.00 0.00 0.00 0.00 0.00 0.00 0.00 0.00 0.00 0.01 0.01 0.02 0.03 0.04 0.06 0.11 0.14 0.15 0.15 0.15 0.16 0.18 0.22 0.27 0.33 0.38 0.40 0.36 0.32 0.34 0.35 0.34 0.31 0.24 0.22 0.25 0.27 0.26
0.00 0.00 0.00 0.00 0.00 0.00 0.00 0.00 0.00 0.00 0.00 0.00 0.00 0.00 0.00 0.00 0.00 0.01 0.01 0.01 0.02 0.02 0.03 0.05 0.07 0.09 0.10 0.14 0.18 0.25 0.36 0.49 0.57 0.55 0.48 0.42 0.43 0.42 0.36 0.33 0.29 0.28 0.31
0.00 0.00 0.00 0.00 0.00 0.00 0.00 0.00 0.00 0.00 0.00 0.00 0.00 0.00 0.00 0.00 0.00 0.00 0.00 0.00 0.00 0.00 0.01 0.01 0.02 0.02 0.03 0.06 0.09 0.15 0.22 0.34 0.50 0.65 0.69 0.60 0.53 0.47 0.41 0.37 0.35 0.34 0.36
0.00 0.00 0.00 0.00 0.00 0.00 0.00 0.00 0.00 0.00 0.00 0.00 0.00 0.00 0.00 0.00 0.00 0.00 0.00 0.00 0.00 0.01 0.01 0.01 0.01 0.01 0.03 0.04 0.06 0.07 0.09 0.14 0.23 0.39 0.60 0.69 0.66 0.54 0.47 0.41 0.38 0.38 0.38
0.00 0.00 0.00 0.00 0.00 0.00 0.00 0.00 0.00 0.00 0.00 0.00 0.00 0.01 0.01 0.01 0.01 0.01 0.01 0.01 0.01 0.02 0.02 0.02 0.02 0.03 0.03 0.04 0.06 0.07 0.07 0.07 0.09 0.16 0.29 0.47 0.64 0.62 0.55 0.47 0.41 0.42 0.45
0.00 0.00 0.00 0.00 0.00 0.00 0.00 0.00 0.00 0.00 0.00 0.02 0.01 0.01 0.01 0.01 0.01 0.01 0.02 0.02 0.03 0.03 0.04 0.05 0.06 0.06 0.06 0.04 0.06 0.11 0.12 0.14 0.13 0.11 0.13 0.19 0.34 0.49 0.56 0.52 0.47 0.45 0.46
0.00 0.00 0.00 0.00 0.00 0.00 0.00 0.00 0.00 0.00 0.01 0.01 0.01 0.01 0.02 0.03 0.04 0.04 0.05 0.06 0.07 0.08 0.10 0.10 0.11 0.11 0.07 0.06 0.07 0.10 0.14 0.21 0.26 0.23 0.19 0.15 0.15 0.24 0.37 0.46 0.48 0.48 0.45
0.00 0.00 0.00 0.00 0.00 0.00 0.00 0.00 0.00 0.01 0.01 0.01 0.01 0.02 0.03 0.04 0.06 0.08 0.11 0.12 0.12 0.13 0.16 0.15 0.15 0.15 0.14 0.12 0.10 0.07 0.14 0.23 0.30 0.35 0.33 0.20 0.11 0.15 0.20 0.27 0.36 0.39 0.37
0.00 0.00 0.00 0.00 0.00 0.00 0.00 0.00 0.01 0.01 0.01 0.01 0.02 0.03 0.05 0.07 0.10 0.12 0.14 0.17 0.20 0.20 0.20 0.19 0.19 0.20 0.18 0.16 0.12 0.10 0.16 0.24 0.24 0.31 0.37 0.29 0.23 0.22 0.24 0.22 0.21 0.24 0.25
0.00 0.00 0.00 0.00 0.00 0.01 0.01 0.01 0.01 0.02 0.02 0.03 0.04 0.06 0.09 0.11 0.13 0.15 0.17 0.22 0.25 0.22 0.21 0.21 0.23 0.25 0.25 0.22 0.14 0.12 0.22 0.29 0.26 0.27 0.30 0.33 0.29 0.23 0.22 0.26 0.20 0.17 0.18
0.00 0.00 0.00 0.00 0.01 0.02 0.02 0.02 0.03 0.04 0.06 0.07 0.08 0.10 0.13 0.15 0.16 0.17 0.20 0.22 0.26 0.26 0.24 0.22 0.25 0.29 0.30 0.27 0.16 0.13 0.23 0.32 0.31 0.32 0.36 0.42 0.40 0.29 0.20 0.24 0.24 0.17 0.14
0.00 0.00 0.00 0.00 0.01 0.02 0.04 0.05 0.06 0.08 0.07 0.08 0.10 0.11 0.12 0.15 0.15 0.18 0.20 0.22 0.24 0.23 0.23 0.24 0.27 0.30 0.31 0.26 0.14 0.12 0.20 0.28 0.31 0.31 0.33 0.42 0.40 0.32 0.21 0.23 0.25 0.19 0.18
0.00 0.00 0.00 0.01 0.02 0.04 0.06 0.07 0.07 0.06 0.06 0.07 0.09 0.10 0.11 0.13 0.15 0.21 0.23 0.24 0.25 0.24 0.22 0.23 0.24 0.29 0.31 0.24 0.15 0.08 0.11 0.22 0.31 0.42 0.44 0.49 0.50 0.39 0.30 0.26 0.25 0.18 0.15
0.00 0.00 0.01 0.01 0.03 0.05 0.07 0.10 0.10 0.08 0.08 0.09 0.10 0.11 0.13 0.16 0.21 0.27 0.29 0.30 0.30 0.30 0.27 0.24 0.22 0.24 0.28 0.24 0.12 0.07 0.07 0.14 0.27 0.48 0.62 0.65 0.62 0.52 0.41 0.36 0.33 0.23 0.17
0.00 0.01 0.02 0.03 0.04 0.05 0.08 0.11 0.13 0.13 0.14 0.14 0.12 0.13 0.15 0.15 0.18 0.25 0.28 0.30 0.31 0.30 0.26 0.24 0.24 0.25 0.27 0.24 0.15 0.10 0.06 0.08 0.18 0.38 0.55 0.68 0.74 0.69 0.57 0.48 0.44 0.30 0.20
0.01 0.02 0.03 0.04 0.05 0.06 0.08 0.09 0.12 0.16 0.17 0.16 0.14 0.13 0.11 0.11 0.13 0.18 0.22 0.20 0.22 0.18 0.16 0.17 0.20 0.22 0.23 0.15 0.09 0.11 0.12 0.11 0.14 0.28 0.53 0.69 0.79 0.81 0.75 0.63 0.54 0.41 0.30
0.02 0.03 0.04 0.04 0.04 0.05 0.05 0.05 0.07 0.13 0.19 0.19 0.16 0.13 0.12 0.13 0.15 0.17 0.19 0.18 0.15 0.12 0.12 0.13 0.10 0.07 0.07 0.04 0.02 0.02 0.03 0.04 0.09 0.26 0.51 0.66 0.74 0.76 0.79 0.75 0.67 0.52 0.38

GEFSMW_prec_meanprecacc_036.txt.gz
Total_Precipitation_Accumulation
0.32 0.36 0.40 0.42 0.66 0.82 0.84 0.96 0.93 0.82 0.52 0.36 0.23 0.16 0.14 0.13 0.13 0.16 0.16 0.19 0.23 0.28 0.34 0.29 0.31 0.29 0.23 0.23 0.25 0.28 0.29 0.27 0.27 0.26 0.21 0.17 0.16 0.16 0.13 0.12 0.15 0.19 0.21
0.23 0.20 0.16 0.27 0.31 0.38 0.44 0.47 0.48 0.40 0.24 0.17 0.15 0.13 0.11 0.08 0.07 0.07 0.09 0.09 0.12 0.17 0.23 0.30 0.25 0.25 0.25 0.24 0.23 0.25 0.23 0.21 0.23 0.25 0.21 0.13 0.10 0.10 0.08 0.12 0.12 0.14 0.23
0.09 0.05 0.04 0.08 0.25 0.45 0.39 0.24 0.24 0.19 0.12 0.10 0.10 0.09 0.09 0.09 0.09 0.07 0.07 0.08 0.07 0.09 0.14 0.21 0.24 0.27 0.24 0.27 0.31 0.28 0.25 0.19 0.19 0.23 0.25 0.16 0.08 0.08 0.09 0.11 0.12 0.13 0.19
0.02 0.02 0.03 0.05 0.14 0.26 0.26 0.20 0.19 0.18 0.11 0.08 0.07 0.06 0.06 0.07 0.07 0.07 0.06 0.07 0.06 0.07 0.08 0.10 0.15 0.22 0.26 0.33 0.25 0.28 0.28 0.23 0.18 0.19 0.20 0.17 0.15 0.13 0.10 0.12 0.11 0.15 0.19
0.01 0.00 0.00 0.01 0.02 0.05 0.11 0.14 0.20 0.25 0.17 0.13 0.09 0.08 0.06 0.05 0.06 0.06 0.07 0.08 0.10 0.11 0.12 0.12 0.11 0.12 0.19 0.26 0.29 0.35 0.31 0.30 0.26 0.20 0.18 0.18 0.16 0.14 0.10 0.09 0.10 0.12 0.10
0.01 0.01 0.00 0.00 0.01 0.04 0.06 0.08 0.14 0.19 0.17 0.14 0.13 0.14 0.14 0.13 0.11 0.11 0.11 0.14 0.17 0.19 0.19 0.20 0.20 0.19 0.17 0.17 0.19 0.23 0.29 0.33 0.33 0.25 0.20 0.22 0.20 0.15 0.12 0.07 0.07 0.12 0.09
0.01 0.01 0.01 0.01 0.01 0.03 0.03 0.03 0.05 0.08 0.10 0.09 0.10 0.15 0.23 0.29 0.29 0.25 0.22 0.20 0.21 0.23 0.23 0.22 0.24 0.27 0.27 0.24 0.20 0.15 0.20 0.28 0.31 0.28 0.25 0.20 0.15 0.17 0.19 0.14 0.08 0.08 0.07
0.01 0.01 0.01 0.01 0.01 0.01 0.01 0.01 0.01 0.01 0.02 0.03 0.05 0.07 0.11 0.18 0.26 0.31 0.30 0.30 0.32 0.27 0.23 0.21 0.22 0.26 0.29 0.31 0.28 0.22 0.20 0.22 0.26 0.29 0.33 0.28 0.14 0.14 0.19 0.19 0.18 0.15 0.11
0.00 0.00 0.00 0.00 0.00 0.00 0.00 0.00 0.00 0.00 0.00 0.00 0.01 0.01 0.02 0.03 0.06 0.10 0.14 0.21 0.31 0.30 0.24 0.20 0.19 0.21 0.25 0.29 0.31 0.29 0.29 0.26 0.23 0.27 0.34 0.33 0.23 0.16 0.15 0.20 0.25 0.27 0.22
0.00 0.00 0.00 0.00 0.00 0.00 0.00 0.00 0.00 0.00 0.00 0.00 0.00 0.00 0.01 0.01 0.02 0.03 0.04 0.06 0.11 0.14 0.15 0.15 0.15 0.16 0.18 0.22 0.27 0.33 0.38 0.40 0.36 0.32 0.34 0.35 0.34 0.31 0.24 0.23 0.26 0.29 0.29
0.00 0.00 0.00 0.00 0.00 0.00 0.00 0.00 0.00 0.00 0.00 0.00 0.00 0.00 0.00 0.00 0.00 0.01 0.01 0.01 0.02 0.02 0.03 0.05 0.07 0.09 0.10 0.14 0.18 0.25 0.36 0.49 0.57 0.55 0.48 0.42 0.43 0.42 0.36 0.33 0.29 0.29 0.33
0.00 0.00 0.00 0.00 0.00 0.00 0.00 0.00 0.00 0.00 0.00 0.00 0.00 0.00 0.00 0.00 0.00 0.00 0.00 0.00 0.00 0.00 0.01 0.01 0.02 0.02 0.03 0.06 0.09 0.15 0.22 0.34 0.50 0.65 0.69 0.60 0.53 0.47 0.41 0.37 0.35 0.34 0.37
0.00 0.00 0.00 0.00 0.00 0.00 0.00 0.00 0.00 0.00 0.00 0.00 0.00 0.00 0.00 0.00 0.00 0.00 0.00 0.00 0.00 0.01 0.01 0.01 0.01 0.01 0.03 0.04 0.06 0.07 0.09 0.14 0.23 0.39 0.60 0.69 0.66 0.54 0.47 0.41 0.38 0.38 0.39
0.00 0.00 0.00 0.00 0.00 0.00 0.00 0.00 0.00 0.00 0.00 0.00 0.00 0.01 0.01 0.01 0.01 0.01 0.01 0.01 0.01 0.02 0.02 0.02 0.02 0.03 0.03 0.04 0.06 0.07 0.07 0.07 0.09 0.16 0.29 0.47 0.64 0.62 0.55 0.47 0.41 0.42 0.45
0.00 0.00 0.00 0.00 0.00 0.00 0.00 0.00 0.00 0.00 0.00 0.02 0.01 0.01 0.01 0.01 0.01 0.01 0.02 0.02 0.03 0.03 0.04 0.05 0.06 0.06 0.06 0.04 0.06 0.11 0.12 0.14 0.13 0.11 0.13 0.19 0.34 0.49 0.56 0.52 0.47 0.45 0.46
0.00 0.00 0.00 0.00 0.00 0.00 0.00 0.00 0.00 0.00 0.01 0.01 0.01 0.01 0.02 0.03 0.04 0.04 0.05 0.06 0.07 0.08 0.10 0.10 0.11 0.11 0.07 0.06 0.07 0.10 0.14 0.21 0.26 0.23 0.19 0.15 0.15 0.24 0.37 0.46 0.49 0.48 0.45
0.00 0.00 0.00 0.00 0.00 0.00 0.00 0.00 0.00 0.01 0.01 0.01 0.01 0.02 0.03 0.04 0.06 0.08 0.11 0.12 0.12 0.13 0.16 0.15 0.15 0.15 0.14 0.12 0.10 0.07 0.14 0.23 0.30 0.35 0.33 0.20 0.11 0.15 0.20 0.28 0.36 0.39 0.38
0.00 0.00 0.00 0.00 0.00 0.00 0.00 0.00 0.01 0.01 0.01 0.01 0.02 0.03 0.05 0.07 0.10 0.12 0.14 0.17 0.20 0.20 0.20 0.19 0.19 0.20 0.18 0.16 0.12 0.10 0.17 0.24 0.24 0.31 0.37 0.29 0.23 0.22 0.24 0.22 0.21 0.24 0.25
0.00 0.00 0.00 0.00 0.00 0.01 0.01 0.01 0.01 0.02 0.02 0.03 0.04 0.06 0.09 0.11 0.13 0.15 0.17 0.22 0.25 0.22 0.21 0.21 0.23 0.25 0.25 0.22 0.15 0.13 0.23 0.29 0.26 0.27 0.30 0.33 0.29 0.23 0.22 0.26 0.20 0.18 0.18
0.00 0.00 0.00 0.00 0.01 0.02 0.02 0.02 0.03 0.04 0.06 0.07 0.08 0.10 0.13 0.15 0.16 0.17 0.20 0.22 0.26 0.26 0.24 0.22 0.25 0.29 0.30 0.27 0.16 0.13 0.24 0.32 0.31 0.32 0.36 0.42 0.40 0.29 0.20 0.24 0.24 0.18 0.15
0.00 0.00 0.00 0.00 0.01 0.02 0.04 0.05 0.06 0.08 0.07 0.08 0.10 0.11 0.12 0.15 0.15 0.18 0.20 0.22 0.24 0.23 0.23 0.24 0.27 0.30 0.31 0.26 0.14 0.12 0.21 0.29 0.32 0.31 0.33 0.42 0.41 0.33 0.22 0.24 0.26 0.20 0.19
0.00 0.00 0.00 0.01 0.02 0.04 0.06 0.07 0.07 0.06 0.06 0.07 0.09 0.10 0.11 0.13 0.15 0.21 0.23 0.24 0.25 0.24 0.22 0.23 0.24 0.29 0.31 0.24 0.15 0.08 0.12 0.23 0.32 0.42 0.45 0.50 0.51 0.40 0.31 0.28 0.27 0.21 0.19
0.00 0.00 0.01 0.01 0.03 0.05 0.07 0.10 0.10 0.08 0.08 0.09 0.10 0.11 0.13 0.16 0.21 0.27 0.29 0.30 0.30 0.30 0.27 0.24 0.22 0.24 0.29 0.24 0.12 0.07 0.07 0.15 0.29 0.50 0.64 0.67 0.65 0.55 0.45 0.39 0.36 0.26 0.21
0.00 0.01 0.02 0.03 0.04 0.05 0.08 0.11 0.13 0.13 0.14 0.14 0.12 0.13 0.15 0.15 0.18 0.25 0.28 0.30 0.31 0.30 0.26 0.24 0.24 0.25 0.27 0.24 0.16 0.10 0.06 0.09 0.19 0.41 0.60 0.73 0.80 0.76 0.64 0.54 0.49 0.35 0.26
0.01 0.02 0.03 0.04 0.05 0.06 0.08 0.09 0.12 0.16 0.17 0.16 0.14 0.13 0.11 0.11 0.13 0.18 0.22 0.20 0.22 0.19 0.16 0.18 0.20 0.23 0.23 0.15 0.10 0.11 0.12 0.11 0.15 0.31 0.59 0.79 0.91 0.92 0.88 0.74 0.64 0.51 0.39
0.02 0.03 0.04 0.04 0.04 0.05 0.05 0.05 0.07 0.13 0.19 0.19 0.16 0.13 0.12 0.13 0.15 0.17 0.19 0.18 0.15 0.12 0.12 0.13 0.10 0.08 0.08 0.05 0.03 0.02 0.04 0.06 0.11 0.30 0.57 0.78 0.91 0.93 0.99 0.93 0.82 0.64 0.48

GEFSMW_prec_meanprecacc_042.txt.gz
Total_Precipitation_Accumulation
0.36 0.41 0.43 0.44 0.67 0.83 0.85 0.96 0.93 0.82 0.52 0.36 0.23 0.16 0.14 0.13 0.13 0.16 0.16 0.19 0.23 0.28 0.34 0.29 0.31 0.29 0.23 0.23 0.26 0.29 0.29 0.27 0.28 0.28 0.23 0.19 0.18 0.18 0.15 0.14 0.17 0.21 0.24
0.27 0.22 0.17 0.27 0.31 0.38 0.44 0.47 0.48 0.40 0.24 0.17 0.15 0.13 0.11 0.08 0.07 0.07 0.09 0.09 0.12 0.17 0.23 0.30 0.25 0.25 0.25 0.25 0.24 0.25 0.23 0.21 0.24 0.27 0.24 0.16 0.13 0.14 0.10 0.14 0.14 0.16 0.26
0.10 0.06 0.04 0.08 0.26 0.45 0.40 0.24 0.25 0.19 0.12 0.10 0.10 0.09 0.09 0.09 0.09 0.07 0.07 0.08 0.07 0.09 0.14 0.21 0.24 0.27 0.24 0.27 0.31 0.29 0.25 0.19 0.19 0.24 0.28 0.20 0.13 0.13 0.13 0.16 0.16 0.17 0.25
0.02 0.02 0.03 0.05 0.14 0.26 0.26 0.20 0.19 0.18 0.11 0.08 0.07 0.06 0.06 0.07 0.07 0.07 0.06 0.07 0.06 0.07 0.08 0.10 0.15 0.22 0.26 0.33 0.25 0.28 0.29 0.24 0.18 0.19 0.21 0.20 0.19 0.19 0.17 0.19 0.18 0.20 0.23
0.01 0.00 0.01 0.01 0.02 0.05 0.11 0.15 0.21 0.26 0.18 0.13 0.09 0.08 0.06 0.06 0.06 0.06 0.07 0.08 0.10 0.11 0.12 0.12 0.11 0.12 0.19 0.26 0.29 0.35 0.31 0.31 0.26 0.20 0.18 0.19 0.17 0.17 0.15 0.15 0.18 0.18 0.14
0.01 0.01 0.00 0.00 0.01 0.04 0.06 0.09 0.15 0.21 0.17 0.14 0.13 0.14 0.14 0.13 0.11 0.11 0.11 0.14 0.17 0.19 0.19 0.20 0.20 0.19 0.17 0.17 0.19 0.23 0.30 0.34 0.34 0.26 0.20 0.22 0.20 0.15 0.13 0.09 0.10 0.16 0.12
0.01 0.01 0.01 0.01 0.01 0.03 0.03 0.03 0.05 0.09 0.10 0.09 0.10 0.15 0.23 0.29 0.29 0.25 0.22 0.20 0.21 0.23 0.23 0.22 0.24 0.27 0.27 0.24 0.20 0.16 0.20 0.28 0.32 0.29 0.26 0.21 0.16 0.17 0.19 0.15 0.09 0.09 0.09
0.01 0.01 0.01 0.01 0.01 0.01 0.01 0.01 0.01 0.01 0.02 0.03 0.05 0.07 0.11 0.18 0.26 0.31 0.30 0.30 0.32 0.27 0.23 0.21 0.22 0.26 0.29 0.31 0.28 0.22 0.20 0.22 0.26 0.29 0.34 0.28 0.14 0.15 0.19 0.19 0.19 0.16 0.12
0.00 0.00 0.00 0.00 0.00 0.00 0.00 0.00 0.00 0.00 0.00 0.00 0.01 0.01 0.02 0.03 0.06 0.10 0.14 0.21 0.31 0.30 0.24 0.20 0.19 0.22 0.25 0.29 0.31 0.29 0.29 0.26 0.23 0.28 0.35 0.33 0.24 0.16 0.15 0.20 0.25 0.28 0.23
0.00 0.00 0.00 0.00 0.00 0.00 0.00 0.00 0.00 0.00 0.00 0.00 0.00 0.00 0.01 0.01 0.02 0.03 0.04 0.06 0.11 0.14 0.15 0.15 0.15 0.16 0.18 0.22 0.27 0.33 0.39 0.40 0.37 0.32 0.34 0.36 0.34 0.32 0.24 0.23 0.26 0.30 0.30
0.00 0.00 0.00 0.00 0.00 0.00 0.00 0.00 0.00 0.00 0.00 0.00 0.00 0.00 0.00 0.00 0.00 0.01 0.01 0.01 0.02 0.02 0.03 0.05 0.07 0.09 0.10 0.14 0.19 0.25 0.37 0.50 0.57 0.55 0.48 0.43 0.43 0.42 0.36 0.33 0.30 0.30 0.33
0.00 0.00 0.00 0.00 0.00 0.00 0.00 0.00 0.00 0.00 0.00 0.00 0.00 0.00 0.00 0.00 0.00 0.00 0.00 0.00 0.00 0.01 0.01 0.01 0.02 0.02 0.03 0.06 0.10 0.15 0.23 0.35 0.51 0.66 0.69 0.60 0.53 0.48 0.41 0.37 0.36 0.34 0.37
0.00 0.00 0.00 0.00 0.00 0.00 0.00 0.00 0.00 0.00 0.00 0.00 0.00 0.00 0.00 0.00 0.00 0.00 0.00 0.00 0.01 0.01 0.01 0.01 0.01 0.02 0.03 0.05 0.06 0.07 0.09 0.15 0.24 0.40 0.61 0.70 0.67 0.55 0.48 0.42 0.38 0.38 0.39
0.00 0.00 0.00 0.00 0.00 0.00 0.00 0.00 0.00 0.00 0.00 0.00 0.00 0.01 0.01 0.01 0.01 0.01 0.01 0.01 0.01 0.02 0.02 0.02 0.03 0.03 0.03 0.04 0.06 0.07 0.08 0.08 0.10 0.17 0.30 0.48 0.65 0.63 0.56 0.48 0.42 0.43 0.45
0.00 0.00 0.00 0.00 0.00 0.00 0.00 0.00 0.00 0.00 0.00 0.02 0.01 0.01 0.01 0.01 0.01 0.01 0.02 0.02 0.03 0.03 0.05 0.06 0.06 0.07 0.06 0.04 0.06 0.12 0.12 0.15 0.14 0.12 0.14 0.20 0.35 0.50 0.57 0.53 0.47 0.45 0.47
0.00 0.00 0.00 0.00 0.00 0.00 0.00 0.00 0.00 0.00 0.01 0.01 0.01 0.01 0.02 0.03 0.04 0.04 0.05 0.06 0.07 0.09 0.11 0.11 0.11 0.11 0.07 0.06 0.07 0.10 0.15 0.22 0.27 0.24 0.21 0.17 0.16 0.25 0.37 0.46 0.49 0.48 0.46
0.00 0.00 0.00 0.00 0.00 0.00 0.00 0.00 0.00 0.01 0.01 0.01 0.01 0.02 0.03 0.04 0.06 0.08 0.11 0.12 0.12 0.14 0.16 0.16 0.15 0.15 0.15 0.12 0.10 0.07 0.14 0.23 0.31 0.36 0.34 0.22 0.12 0.16 0.21 0.28 0.36 0.39 0.38
0.00 0.00 0.00 0.00 0.00 0.00 0.00 0.00 0.01 0.01 0.01 0.01 0.02 0.03 0.05 0.07 0.10 0.12 0.14 0.17 0.20 0.20 0.20 0.20 0.19 0.21 0.18 0.16 0.12 0.10 0.17 0.24 0.25 0.33 0.38 0.32 0.25 0.24 0.26 0.25 0.23 0.25 0.26
0.00 0.00 0.00 0.00 0.00 0.01 0.01 0.01 0.01 0.02 0.02 0.03 0.04 0.06 0.09 0.11 0.13 0.15 0.17 0.22 0.25 0.23 0.21 0.21 0.23 0.26 0.25 0.22 0.15 0.13 0.23 0.30 0.27 0.28 0.32 0.35 0.32 0.25 0.23 0.27 0.23 0.20 0.20
0.00 0.00 0.00 0.00 0.01 0.02 0.02 0.02 0.03 0.04 0.06 0.07 0.08 0.10 0.13 0.15 0.16 0.17 0.20 0.23 0.26 0.26 0.24 0.22 0.25 0.29 0.31 0.27 0.16 0.13 0.24 0.33 0.32 0.34 0.38 0.43 0.40 0.30 0.20 0.26 0.28 0.21 0.18
0.00 0.00 0.00 0.00 0.01 0.02 0.04 0.05 0.06 0.08 0.07 0.08 0.10 0.11 0.12 0.15 0.15 0.18 0.20 0.22 0.24 0.24 0.23 0.24 0.27 0.31 0.31 0.26 0.14 0.12 0.21 0.30 0.33 0.32 0.35 0.44 0.41 0.33 0.22 0.24 0.28 0.22 0.22
0.00 0.00 0.00 0.01 0.02 0.04 0.06 0.07 0.07 0.06 0.06 0.07 0.09 0.10 0.11 0.13 0.15 0.21 0.23 0.24 0.25 0.24 0.23 0.24 0.24 0.29 0.32 0.24 0.16 0.08 0.13 0.23 0.33 0.43 0.46 0.51 0.51 0.40 0.32 0.28 0.27 0.21 0.19
0.00 0.00 0.01 0.01 0.03 0.05 0.07 0.10 0.10 0.08 0.08 0.09 0.10 0.11 0.13 0.16 0.21 0.27 0.29 0.30 0.30 0.31 0.28 0.25 0.22 0.24 0.30 0.26 0.13 0.08 0.07 0.15 0.29 0.51 0.65 0.68 0.65 0.55 0.45 0.39 0.36 0.27 0.22
0.00 0.01 0.02 0.03 0.04 0.05 0.08 0.11 0.13 0.13 0.14 0.14 0.12 0.13 0.15 0.15 0.18 0.25 0.28 0.30 0.32 0.31 0.26 0.25 0.24 0.25 0.28 0.27 0.19 0.13 0.07 0.10 0.20 0.41 0.60 0.74 0.81 0.77 0.66 0.56 0.50 0.37 0.29
0.01 0.02 0.03 0.04 0.05 0.06 0.08 0.09 0.12 0.16 0.17 0.16 0.14 0.13 0.11 0.11 0.13 0.18 0.22 0.20 0.22 0.19 0.17 0.18 0.21 0.23 0.25 0.17 0.11 0.12 0.13 0.12 0.16 0.32 0.60 0.82 0.95 0.97 0.94 0.81 0.70 0.57 0.45
0.02 0.03 0.04 0.04 0.04 0.05 0.06 0.06 0.07 0.13 0.19 0.19 0.16 0.13 0.12 0.13 0.15 0.17 0.19 0.18 0.15 0.12 0.12 0.14 0.11 0.08 0.08 0.05 0.03 0.03 0.05 0.07 0.12 0.31 0.59 0.81 0.97 1.01 1.08 1.05 0.94 0.76 0.60

GEFSMW_prec_meanprecacc_048.txt.gz
Total_Precipitation_Accumulation
0.45 0.46 0.46 0.46 0.71 0.86 0.87 0.98 0.93 0.83 0.52 0.36 0.23 0.16 0.14 0.13 0.13 0.16 0.16 0.19 0.23 0.28 0.34 0.29 0.32 0.29 0.24 0.24 0.26 0.29 0.30 0.28 0.29 0.28 0.24 0.20 0.20 0.20 0.16 0.15 0.19 0.23 0.27
0.35 0.26 0.19 0.29 0.32 0.39 0.45 0.47 0.49 0.41 0.25 0.17 0.15 0.13 0.11 0.08 0.07 0.07 0.09 0.09 0.12 0.17 0.23 0.30 0.25 0.25 0.25 0.25 0.24 0.26 0.25 0.22 0.24 0.27 0.24 0.16 0.14 0.16 0.11 0.18 0.19 0.20 0.31
0.16 0.08 0.05 0.09 0.26 0.45 0.40 0.25 0.25 0.20 0.13 0.10 0.10 0.10 0.10 0.10 0.09 0.08 0.07 0.08 0.07 0.09 0.14 0.21 0.24 0.27 0.24 0.27 0.32 0.30 0.27 0.21 0.19 0.24 0.29 0.21 0.14 0.16 0.17 0.21 0.22 0.24 0.33
0.04 0.03 0.03 0.05 0.14 0.26 0.26 0.21 0.20 0.20 0.12 0.09 0.08 0.07 0.07 0.08 0.08 0.07 0.06 0.07 0.06 0.07 0.08 0.10 0.15 0.22 0.26 0.33 0.26 0.29 0.30 0.25 0.18 0.19 0.21 0.20 0.20 0.20 0.20 0.24 0.24 0.28 0.33
0.01 0.00 0.01 0.01 0.02 0.05 0.11 0.15 0.24 0.28 0.20 0.14 0.10 0.09 0.07 0.06 0.06 0.07 0.07 0.08 0.10 0.11 0.12 0.12 0.11 0.12 0.19 0.26 0.29 0.35 0.32 0.32 0.27 0.21 0.19 0.20 0.18 0.18 0.16 0.17 0.22 0.23 0.19
0.01 0.01 0.00 0.00 0.01 0.04 0.06 0.09 0.18 0.25 0.20 0.16 0.14 0.15 0.15 0.13 0.12 0.11 0.11 0.14 0.17 0.19 0.19 0.20 0.20 0.19 0.17 0.17 0.19 0.24 0.30 0.35 0.36 0.28 0.22 0.23 0.21 0.16 0.14 0.10 0.11 0.18 0.14
0.01 0.01 0.01 0.01 0.01 0.03 0.03 0.04 0.07 0.12 0.12 0.10 0.10 0.15 0.23 0.29 0.30 0.25 0.22 0.20 0.21 0.23 0.23 0.22 0.24 0.27 0.27 0.25 0.20 0.16 0.20 0.28 0.33 0.30 0.27 0.23 0.18 0.18 0.20 0.15 0.09 0.09 0.09
0.01 0.01 0.01 0.01 0.01 0.01 0.01 0.01 0.01 0.02 0.03 0.04 0.05 0.07 0.11 0.18 0.26 0.31 0.30 0.30 0.32 0.27 0.23 0.21 0.22 0.26 0.30 0.31 0.28 0.22 0.20 0.22 0.26 0.29 0.34 0.29 0.15 0.15 0.20 0.20 0.20 0.16 0.12
0.00 0.00 0.00 0.00 0.00 0.00 0.00 0.00 0.00 0.00 0.00 0.00 0.01 0.01 0.02 0.04 0.06 0.10 0.14 0.21 0.31 0.30 0.24 0.20 0.19 0.22 0.25 0.30 0.31 0.30 0.29 0.26 0.24 0.28 0.35 0.33 0.24 0.17 0.15 0.20 0.26 0.29 0.23
0.00 0.00 0.00 0.00 0.00 0.00 0.00 0.00 0.00 0.00 0.00 0.00 0.00 0.00 0.01 0.01 0.02 0.03 0.04 0.06 0.11 0.15 0.15 0.15 0.15 0.17 0.19 0.23 0.28 0.34 0.39 0.41 0.38 0.33 0.35 0.36 0.35 0.32 0.24 0.23 0.26 0.30 0.30
0.00 0.00 0.00 0.00 0.00 0.00 0.00 0.00 0.00 0.00 0.00 0.00 0.00 0.00 0.00 0.00 0.00 0.01 0.01 0.02 0.02 0.03 0.04 0.06 0.08 0.10 0.12 0.15 0.20 0.27 0.38 0.51 0.59 0.57 0.50 0.44 0.44 0.43 0.37 0.33 0.30 0.30 0.33
0.00 0.00 0.00 0.00 0.00 0.00 0.00 0.00 0.00 0.00 0.00 0.00 0.00 0.00 0.00 0.00 0.00 0.00 0.00 0.00 0.01 0.01 0.01 0.02 0.02 0.03 0.04 0.07 0.11 0.17 0.24 0.36 0.53 0.68 0.72 0.63 0.56 0.51 0.43 0.39 0.36 0.35 0.38
0.00 0.00 0.00 0.00 0.00 0.00 0.00 0.00 0.00 0.00 0.00 0.00 0.00 0.00 0.00 0.00 0.00 0.00 0.00 0.01 0.01 0.01 0.01 0.02 0.02 0.03 0.04 0.06 0.07 0.09 0.11 0.17 0.27 0.44 0.65 0.74 0.71 0.59 0.51 0.45 0.40 0.39 0.40
0.00 0.00 0.00 0.00 0.00 0.00 0.00 0.00 0.00 0.00 0.00 0.00 0.00 0.01 0.01 0.01 0.01 0.01 0.01 0.01 0.02 0.02 0.02 0.03 0.03 0.04 0.04 0.05 0.08 0.09 0.10 0.12 0.14 0.21 0.34 0.52 0.69 0.68 0.60 0.51 0.45 0.45 0.47
0.00 0.00 0.00 0.00 0.00 0.00 0.00 0.00 0.00 0.00 0.00 0.02 0.01 0.01 0.01 0.01 0.01 0.01 0.02 0.03 0.03 0.03 0.05 0.06 0.07 0.07 0.07 0.05 0.07 0.13 0.14 0.16 0.16 0.15 0.17 0.23 0.38 0.53 0.60 0.54 0.50 0.49 0.50
0.00 0.00 0.00 0.00 0.00 0.00 0.00 0.00 0.00 0.00 0.01 0.01 0.01 0.01 0.02 0.03 0.04 0.04 0.05 0.06 0.07 0.09 0.11 0.11 0.12 0.12 0.08 0.06 0.07 0.10 0.15 0.23 0.28 0.25 0.23 0.19 0.18 0.26 0.38 0.46 0.49 0.49 0.47
0.00 0.00 0.00 0.00 0.00 0.00 0.00 0.00 0.00 0.01 0.01 0.01 0.01 0.02 0.03 0.04 0.06 0.08 0.11 0.12 0.12 0.14 0.16 0.16 0.16 0.16 0.16 0.13 0.10 0.07 0.14 0.23 0.31 0.37 0.37 0.23 0.13 0.18 0.25 0.32 0.38 0.40 0.38
0.00 0.00 0.00 0.00 0.00 0.00 0.00 0.00 0.01 0.01 0.01 0.01 0.02 0.03 0.05 0.07 0.10 0.12 0.14 0.17 0.20 0.20 0.21 0.20 0.20 0.22 0.20 0.17 0.12 0.10 0.17 0.24 0.25 0.33 0.41 0.35 0.29 0.28 0.32 0.32 0.31 0.31 0.30
0.00 0.00 0.00 0.00 0.00 0.01 0.01 0.01 0.01 0.02 0.02 0.03 0.04 0.06 0.09 0.11 0.13 0.15 0.17 0.22 0.25 0.23 0.21 0.21 0.24 0.27 0.27 0.23 0.15 0.13 0.23 0.30 0.28 0.30 0.35 0.40 0.39 0.31 0.25 0.30 0.27 0.25 0.26
0.00 0.00 0.00 0.00 0.01 0.02 0.02 0.02 0.03 0.04 0.06 0.07 0.08 0.10 0.13 0.15 0.16 0.17 0.20 0.23 0.26 0.26 0.24 0.22 0.26 0.30 0.32 0.29 0.16 0.13 0.24 0.33 0.33 0.37 0.43 0.46 0.42 0.31 0.21 0.27 0.31 0.25 0.23
0.00 0.00 0.00 0.00 0.01 0.02 0.04 0.05 0.06 0.08 0.07 0.08 0.10 0.11 0.12 0.15 0.15 0.18 0.20 0.22 0.24 0.24 0.24 0.24 0.28 0.32 0.32 0.27 0.15 0.12 0.22 0.30 0.35 0.34 0.37 0.47 0.42 0.33 0.22 0.25 0.29 0.24 0.25
0.00 0.00 0.00 0.01 0.02 0.04 0.06 0.07 0.07 0.06 0.06 0.07 0.09 0.10 0.11 0.13 0.15 0.21 0.23 0.24 0.25 0.24 0.23 0.24 0.26 0.31 0.35 0.27 0.18 0.09 0.13 0.24 0.33 0.44 0.47 0.54 0.51 0.40 0.32 0.28 0.27 0.21 0.19
0.00 0.00 0.01 0.02 0.03 0.05 0.07 0.10 0.10 0.08 0.09 0.09 0.10 0.11 0.13 0.17 0.21 0.27 0.29 0.30 0.31 0.31 0.28 0.26 0.23 0.25 0.33 0.31 0.14 0.08 0.07 0.15 0.29 0.51 0.65 0.69 0.65 0.55 0.46 0.39 0.36 0.27 0.22
0.00 0.01 0.02 0.03 0.04 0.06 0.08 0.11 0.13 0.14 0.14 0.14 0.13 0.14 0.15 0.16 0.19 0.26 0.29 0.31 0.32 0.31 0.28 0.26 0.26 0.27 0.32 0.34 0.27 0.20 0.12 0.12 0.21 0.42 0.62 0.75 0.81 0.77 0.66 0.57 0.51 0.37 0.30
0.01 0.02 0.03 0.05 0.05 0.06 0.08 0.10 0.12 0.16 0.18 0.17 0.15 0.14 0.12 0.12 0.16 0.21 0.23 0.20 0.23 0.19 0.17 0.19 0.22 0.24 0.26 0.21 0.13 0.14 0.15 0.15 0.19 0.34 0.62 0.83 0.98 1.01 0.99 0.86 0.76 0.63 0.50
0.02 0.03 0.04 0.04 0.05 0.05 0.06 0.06 0.08 0.14 0.20 0.21 0.18 0.15 0.13 0.14 0.16 0.18 0.20 0.19 0.15 0.13 0.13 0.14 0.11 0.08 0.08 0.05 0.03 0.03 0.05 0.07 0.12 0.31 0.59 0.82 0.99 1.05 1.15 1.14 1.04 0.87 0.69

GEFSMW_prec_meanprecacc_054.txt.gz
Total_Precipitation_Accumulation
0.70 0.66 0.62 0.54 0.74 0.88 0.88 0.99 0.94 0.83 0.52 0.36 0.23 0.16 0.14 0.13 0.13 0.16 0.16 0.19 0.23 0.28 0.34 0.29 0.32 0.29 0.24 0.24 0.26 0.29 0.30 0.28 0.29 0.28 0.24 0.20 0.20 0.20 0.16 0.16 0.20 0.25 0.30
0.55 0.40 0.29 0.33 0.34 0.40 0.46 0.48 0.49 0.41 0.25 0.17 0.15 0.13 0.11 0.08 0.07 0.07 0.09 0.09 0.12 0.17 0.23 0.30 0.25 0.25 0.25 0.25 0.24 0.26 0.25 0.22 0.24 0.28 0.24 0.16 0.14 0.16 0.11 0.19 0.22 0.25 0.38
0.32 0.18 0.11 0.12 0.27 0.46 0.40 0.25 0.25 0.20 0.13 0.11 0.10 0.10 0.10 0.10 0.09 0.08 0.07 0.08 0.07 0.09 0.14 0.21 0.24 0.27 0.24 0.27 0.32 0.30 0.27 0.21 0.19 0.24 0.29 0.21 0.14 0.16 0.18 0.22 0.24 0.29 0.40
0.12 0.08 0.06 0.07 0.15 0.26 0.26 0.21 0.20 0.20 0.12 0.09 0.08 0.08 0.07 0.08 0.08 0.07 0.06 0.07 0.06 0.07 0.08 0.10 0.15 0.22 0.26 0.33 0.26 0.29 0.30 0.25 0.19 0.19 0.21 0.20 0.20 0.20 0.20 0.24 0.24 0.29 0.36
0.03 0.02 0.02 0.02 0.02 0.05 0.11 0.16 0.25 0.29 0.20 0.14 0.10 0.09 0.07 0.06 0.07 0.07 0.07 0.08 0.10 0.11 0.12 0.12 0.11 0.12 0.19 0.26 0.29 0.35 0.32 0.32 0.27 0.22 0.19 0.20 0.18 0.18 0.16 0.17 0.22 0.23 0.19
0.01 0.01 0.01 0.01 0.01 0.04 0.06 0.09 0.19 0.26 0.21 0.16 0.14 0.15 0.15 0.13 0.12 0.11 0.11 0.14 0.17 0.19 0.19 0.20 0.20 0.19 0.17 0.17 0.19 0.24 0.30 0.35 0.36 0.28 0.22 0.24 0.21 0.16 0.14 0.10 0.11 0.18 0.14
0.01 0.01 0.01 0.01 0.01 0.03 0.04 0.04 0.08 0.13 0.12 0.10 0.11 0.16 0.23 0.29 0.30 0.25 0.22 0.20 0.21 0.23 0.23 0.22 0.24 0.27 0.27 0.25 0.20 0.16 0.20 0.28 0.33 0.30 0.27 0.23 0.18 0.18 0.20 0.15 0.09 0.09 0.09
0.01 0.01 0.01 0.01 0.01 0.01 0.01 0.02 0.03 0.03 0.03 0.04 0.05 0.07 0.11 0.18 0.26 0.31 0.30 0.30 0.32 0.27 0.23 0.21 0.22 0.26 0.30 0.31 0.28 0.22 0.20 0.22 0.26 0.29 0.34 0.29 0.15 0.15 0.20 0.20 0.20 0.16 0.12
0.00 0.00 0.00 0.00 0.00 0.00 0.00 0.00 0.01 0.01 0.01 0.01 0.01 0.01 0.02 0.04 0.06 0.10 0.14 0.21 0.31 0.30 0.24 0.20 0.19 0.22 0.25 0.30 0.31 0.30 0.29 0.27 0.24 0.28 0.35 0.33 0.24 0.17 0.15 0.21 0.26 0.29 0.23
0.00 0.00 0.00 0.00 0.00 0.00 0.00 0.00 0.00 0.00 0.00 0.00 0.00 0.00 0.01 0.01 0.02 0.03 0.04 0.06 0.11 0.15 0.15 0.15 0.15 0.17 0.19 0.23 0.29 0.34 0.40 0.42 0.38 0.33 0.35 0.37 0.35 0.32 0.24 0.23 0.26 0.30 0.30
0.00 0.00 0.00 0.00 0.00 0.00 0.00 0.00 0.00 0.00 0.00 0.00 0.00 0.00 0.00 0.00 0.00 0.01 0.01 0.02 0.02 0.03 0.04 0.06 0.08 0.10 0.12 0.15 0.21 0.27 0.38 0.51 0.59 0.57 0.50 0.44 0.44 0.43 0.37 0.33 0.30 0.30 0.33
0.00 0.00 0.00 0.00 0.00 0.00 0.00 0.00 0.00 0.00 0.00 0.00 0.00 0.00 0.00 0.00 0.00 0.00 0.00 0.00 0.01 0.01 0.01 0.02 0.02 0.03 0.04 0.07 0.11 0.17 0.24 0.37 0.53 0.69 0.72 0.63 0.56 0.51 0.43 0.39 0.36 0.35 0.38
0.00 0.00 0.00 0.00 0.00 0.00 0.00 0.00 0.00 0.00 0.00 0.00 0.00 0.00 0.00 0.00 0.00 0.00 0.00 0.01 0.01 0.01 0.01 0.02 0.02 0.03 0.04 0.06 0.07 0.09 0.11 0.17 0.27 0.44 0.65 0.74 0.72 0.59 0.51 0.45 0.40 0.39 0.40
0.00 0.00 0.00 0.00 0.00 0.00 0.00 0.00 0.00 0.00 0.00 0.00 0.00 0.01 0.01 0.01 0.01 0.01 0.01 0.01 0.02 0.02 0.02 0.03 0.03 0.04 0.04 0.05 0.08 0.09 0.10 0.12 0.14 0.21 0.34 0.52 0.69 0.68 0.60 0.52 0.45 0.45 0.47
0.00 0.00 0.00 0.00 0.00 0.00 0.00 0.00 0.00 0.00 0.00 0.02 0.01 0.01 0.01 0.01 0.01 0.01 0.02 0.03 0.03 0.03 0.05 0.06 0.07 0.07 0.07 0.05 0.07 0.13 0.14 0.16 0.16 0.15 0.17 0.23 0.38 0.53 0.60 0.54 0.50 0.49 0.50
0.00 0.00 0.00 0.00 0.00 0.00 0.00 0.00 0.00 0.00 0.01 0.01 0.01 0.01 0.02 0.03 0.04 0.04 0.05 0.06 0.07 0.09 0.11 0.11 0.12 0.12 0.08 0.06 0.07 0.10 0.15 0.23 0.28 0.25 0.23 0.19 0.18 0.26 0.38 0.46 0.49 0.49 0.47
0.00 0.00 0.00 0.00 0.00 0.00 0.00 0.00 0.00 0.01 0.01 0.01 0.01 0.02 0.03 0.04 0.06 0.08 0.11 0.12 0.12 0.14 0.16 0.16 0.16 0.16 0.16 0.13 0.10 0.07 0.14 0.23 0.31 0.37 0.37 0.23 0.13 0.18 0.25 0.32 0.38 0.40 0.38
0.00 0.00 0.00 0.00 0.00 0.00 0.00 0.01 0.01 0.01 0.01 0.01 0.02 0.03 0.05 0.07 0.10 0.12 0.14 0.17 0.20 0.20 0.21 0.20 0.20 0.22 0.20 0.17 0.12 0.10 0.17 0.24 0.25 0.33 0.41 0.35 0.29 0.28 0.32 0.32 0.31 0.31 0.30
0.00 0.00 0.00 0.00 0.00 0.01 0.01 0.01 0.01 0.02 0.02 0.03 0.05 0.06 0.09 0.11 0.13 0.15 0.17 0.22 0.25 0.23 0.21 0.21 0.24 0.27 0.27 0.23 0.15 0.13 0.23 0.30 0.28 0.30 0.35 0.40 0.39 0.31 0.25 0.30 0.27 0.25 0.26
0.01 0.00 0.00 0.00 0.01 0.02 0.02 0.02 0.04 0.05 0.07 0.08 0.09 0.11 0.13 0.15 0.16 0.17 0.20 0.23 0.26 0.26 0.24 0.22 0.26 0.30 0.33 0.29 0.16 0.13 0.24 0.33 0.33 0.37 0.43 0.46 0.42 0.32 0.21 0.27 0.31 0.25 0.23
0.01 0.01 0.01 0.01 0.02 0.03 0.05 0.07 0.08 0.09 0.09 0.09 0.11 0.12 0.13 0.16 0.17 0.20 0.21 0.23 0.25 0.24 0.24 0.24 0.28 0.32 0.33 0.28 0.15 0.12 0.22 0.31 0.35 0.34 0.37 0.48 0.42 0.33 0.22 0.25 0.29 0.24 0.25
0.01 0.01 0.02 0.03 0.04 0.06 0.08 0.09 0.09 0.08 0.08 0.10 0.13 0.14 0.16 0.18 0.19 0.24 0.25 0.25 0.26 0.25 0.24 0.25 0.26 0.31 0.35 0.27 0.18 0.09 0.13 0.24 0.33 0.44 0.47 0.54 0.51 0.40 0.32 0.28 0.27 0.21 0.19
0.01 0.02 0.03 0.04 0.05 0.08 0.10 0.13 0.13 0.12 0.13 0.16 0.17 0.18 0.18 0.21 0.25 0.30 0.31 0.32 0.32 0.32 0.29 0.27 0.24 0.26 0.34 0.32 0.14 0.08 0.08 0.15 0.29 0.51 0.65 0.69 0.65 0.55 0.46 0.39 0.36 0.27 0.22
0.01 0.02 0.03 0.05 0.06 0.07 0.10 0.14 0.16 0.18 0.20 0.20 0.19 0.19 0.19 0.19 0.23 0.30 0.32 0.33 0.34 0.34 0.30 0.29 0.28 0.28 0.33 0.34 0.28 0.20 0.12 0.12 0.21 0.42 0.62 0.75 0.81 0.77 0.66 0.57 0.51 0.37 0.30
0.01 0.02 0.04 0.05 0.06 0.07 0.09 0.11 0.14 0.19 0.22 0.22 0.20 0.20 0.17 0.18 0.20 0.24 0.27 0.24 0.26 0.23 0.21 0.22 0.25 0.27 0.29 0.23 0.16 0.15 0.16 0.16 0.19 0.34 0.62 0.83 0.98 1.01 0.99 0.86 0.76 0.63 0.50
0.02 0.03 0.04 0.04 0.05 0.05 0.06 0.07 0.10 0.16 0.24 0.26 0.24 0.21 0.19 0.19 0.21 0.23 0.24 0.23 0.19 0.17 0.18 0.19 0.16 0.13 0.13 0.11 0.07 0.05 0.07 0.08 0.13 0.31 0.59 0.82 0.99 1.05 1.15 1.14 1.05 0.87 0.70

GEFSMW_prec_meanprecacc_060.txt.gz
Total_Precipitation_Accumulation
1.00 1.03 0.98 0.86 0.97 1.06 0.98 1.04 0.98 0.85 0.54 0.37 0.24 0.17 0.14 0.13 0.13 0.16 0.16 0.19 0.23 0.28 0.34 0.29 0.32 0.29 0.24 0.24 0.26 0.29 0.30 0.28 0.29 0.28 0.24 0.20 0.20 0.20 0.16 0.16 0.20 0.25 0.31
0.79 0.67 0.57 0.57 0.49 0.51 0.52 0.51 0.51 0.42 0.25 0.18 0.15 0.13 0.11 0.08 0.07 0.07 0.09 0.09 0.12 0.17 0.23 0.30 0.25 0.25 0.25 0.25 0.24 0.26 0.25 0.22 0.24 0.28 0.24 0.16 0.14 0.16 0.11 0.19 0.22 0.25 0.38
0.50 0.37 0.31 0.27 0.36 0.52 0.43 0.27 0.26 0.21 0.13 0.11 0.10 0.10 0.10 0.10 0.09 0.08 0.07 0.08 0.07 0.09 0.14 0.21 0.24 0.27 0.24 0.27 0.32 0.30 0.27 0.21 0.19 0.24 0.29 0.21 0.14 0.16 0.18 0.22 0.24 0.29 0.41
0.25 0.24 0.20 0.18 0.23 0.30 0.28 0.22 0.21 0.20 0.12 0.09 0.08 0.08 0.07 0.08 0.08 0.07 0.06 0.07 0.06 0.07 0.08 0.10 0.15 0.22 0.26 0.33 0.26 0.29 0.30 0.25 0.19 0.19 0.21 0.20 0.20 0.20 0.20 0.24 0.24 0.29 0.36
0.09 0.13 0.12 0.10 0.09 0.09 0.13 0.16 0.25 0.29 0.20 0.14 0.10 0.09 0.07 0.06 0.07 0.07 0.07 0.08 0.10 0.11 0.12 0.12 0.11 0.12 0.19 0.26 0.29 0.35 0.32 0.32 0.27 0.22 0.19 0.20 0.18 0.18 0.16 0.17 0.22 0.23 0.19
0.03 0.06 0.06 0.05 0.05 0.06 0.07 0.10 0.19 0.26 0.21 0.16 0.14 0.15 0.15 0.13 0.12 0.11 0.11 0.14 0.17 0.19 0.19 0.20 0.20 0.19 0.17 0.17 0.19 0.24 0.30 0.35 0.36 0.28 0.22 0.24 0.21 0.16 0.14 0.10 0.11 0.18 0.14
0.01 0.02 0.02 0.03 0.03 0.04 0.04 0.04 0.08 0.13 0.12 0.10 0.11 0.16 0.23 0.29 0.30 0.25 0.22 0.20 0.21 0.23 0.23 0.22 0.24 0.27 0.27 0.25 0.20 0.16 0.20 0.28 0.33 0.30 0.27 0.23 0.18 0.18 0.20 0.15 0.09 0.09 0.09
0.01 0.01 0.01 0.02 0.01 0.01 0.01 0.02 0.03 0.03 0.03 0.04 0.05 0.07 0.11 0.18 0.26 0.31 0.30 0.30 0.32 0.27 0.23 0.21 0.22 0.26 0.30 0.31 0.28 0.22 0.20 0.22 0.26 0.29 0.34 0.29 0.15 0.15 0.20 0.20 0.20 0.16 0.12
0.00 0.00 0.00 0.00 0.00 0.00 0.00 0.00 0.01 0.01 0.01 0.01 0.01 0.01 0.02 0.04 0.06 0.10 0.14 0.21 0.31 0.30 0.24 0.20 0.19 0.22 0.25 0.30 0.31 0.30 0.29 0.27 0.24 0.28 0.35 0.33 0.24 0.17 0.15 0.21 0.26 0.29 0.23
0.00 0.00 0.00 0.00 0.00 0.00 0.00 0.00 0.00 0.00 0.00 0.00 0.00 0.00 0.01 0.01 0.02 0.03 0.04 0.06 0.11 0.15 0.15 0.15 0.15 0.17 0.19 0.23 0.29 0.34 0.40 0.42 0.38 0.33 0.35 0.37 0.35 0.32 0.24 0.23 0.26 0.30 0.30
0.00 0.00 0.00 0.00 0.00 0.00 0.00 0.00 0.00 0.00 0.00 0.00 0.00 0.00 0.00 0.00 0.00 0.01 0.01 0.02 0.02 0.03 0.04 0.06 0.08 0.10 0.12 0.15 0.21 0.27 0.38 0.51 0.59 0.57 0.50 0.44 0.44 0.43 0.37 0.33 0.30 0.30 0.33
0.00 0.00 0.00 0.00 0.00 0.00 0.00 0.00 0.00 0.00 0.00 0.00 0.00 0.00 0.00 0.00 0.00 0.00 0.00 0.00 0.01 0.01 0.01 0.02 0.02 0.03 0.04 0.07 0.11 0.17 0.24 0.37 0.53 0.69 0.72 0.63 0.56 0.51 0.43 0.39 0.36 0.35 0.38
0.00 0.00 0.00 0.00 0.00 0.00 0.00 0.00 0.00 0.00 0.00 0.00 0.00 0.00 0.00 0.00 0.00 0.00 0.00 0.01 0.01 0.01 0.01 0.02 0.02 0.03 0.04 0.06 0.07 0.09 0.11 0.17 0.27 0.44 0.65 0.74 0.72 0.59 0.51 0.45 0.40 0.39 0.40
0.00 0.00 0.00 0.00 0.00 0.00 0.00 0.00 0.00 0.00 0.00 0.00 0.01 0.01 0.01 0.01 0.01 0.01 0.01 0.01 0.02 0.02 0.02 0.03 0.03 0.04 0.04 0.05 0.08 0.09 0.10 0.12 0.14 0.21 0.34 0.52 0.69 0.68 0.60 0.52 0.45 0.45 0.47
0.00 0.00 0.00 0.00 0.00 0.00 0.00 0.00 0.00 0.00 0.01 0.02 0.02 0.01 0.01 0.01 0.01 0.01 0.02 0.03 0.03 0.03 0.05 0.06 0.07 0.07 0.07 0.05 0.07 0.13 0.14 0.16 0.16 0.15 0.17 0.23 0.38 0.53 0.60 0.54 0.50 0.49 0.50
0.00 0.00 0.00 0.00 0.00 0.00 0.00 0.00 0.00 0.00 0.01 0.01 0.01 0.01 0.02 0.03 0.04 0.04 0.05 0.06 0.07 0.09 0.11 0.11 0.12 0.12 0.08 0.06 0.07 0.10 0.15 0.23 0.28 0.25 0.23 0.19 0.18 0.26 0.38 0.46 0.49 0.49 0.47
0.01 0.01 0.01 0.01 0.00 0.00 0.01 0.01 0.01 0.01 0.01 0.01 0.01 0.02 0.03 0.04 0.06 0.08 0.11 0.12 0.13 0.14 0.16 0.16 0.16 0.16 0.16 0.13 0.10 0.07 0.14 0.23 0.31 0.37 0.37 0.23 0.13 0.18 0.25 0.32 0.38 0.40 0.38
0.02 0.02 0.02 0.01 0.01 0.01 0.01 0.01 0.01 0.01 0.02 0.02 0.03 0.04 0.06 0.08 0.10 0.13 0.15 0.17 0.20 0.21 0.21 0.20 0.20 0.22 0.20 0.17 0.13 0.10 0.17 0.24 0.25 0.33 0.41 0.35 0.29 0.28 0.32 0.32 0.31 0.31 0.30
0.02 0.02 0.02 0.01 0.01 0.02 0.02 0.02 0.02 0.03 0.03 0.04 0.06 0.08 0.11 0.13 0.15 0.17 0.19 0.24 0.26 0.23 0.22 0.22 0.24 0.27 0.27 0.24 0.15 0.13 0.23 0.30 0.28 0.30 0.35 0.40 0.39 0.31 0.25 0.30 0.27 0.25 0.26
0.02 0.01 0.01 0.01 0.02 0.03 0.03 0.03 0.05 0.06 0.08 0.10 0.11 0.14 0.17 0.19 0.20 0.21 0.23 0.25 0.29 0.29 0.27 0.25 0.27 0.31 0.33 0.30 0.17 0.14 0.25 0.33 0.33 0.37 0.43 0.46 0.42 0.32 0.21 0.27 0.31 0.25 0.23
0.02 0.01 0.01 0.02 0.03 0.05 0.06 0.09 0.10 0.11 0.12 0.13 0.16 0.17 0.19 0.22 0.23 0.25 0.26 0.29 0.30 0.29 0.27 0.26 0.29 0.34 0.34 0.29 0.16 0.13 0.23 0.31 0.35 0.34 0.37 0.48 0.42 0.33 0.22 0.25 0.29 0.24 0.25
0.02 0.02 0.02 0.03 0.05 0.07 0.10 0.11 0.12 0.12 0.12 0.15 0.18 0.20 0.23 0.25 0.27 0.31 0.32 0.31 0.30 0.28 0.26 0.27 0.28 0.33 0.37 0.29 0.20 0.10 0.14 0.25 0.34 0.45 0.48 0.55 0.52 0.40 0.32 0.28 0.27 0.22 0.19
0.01 0.02 0.03 0.04 0.06 0.08 0.11 0.14 0.15 0.15 0.16 0.19 0.21 0.22 0.23 0.26 0.30 0.34 0.35 0.35 0.36 0.35 0.32 0.29 0.25 0.28 0.36 0.34 0.17 0.10 0.10 0.17 0.31 0.52 0.66 0.70 0.66 0.56 0.46 0.39 0.36 0.27 0.23
0.01 0.02 0.03 0.05 0.06 0.07 0.10 0.14 0.16 0.18 0.21 0.21 0.20 0.21 0.21 0.21 0.25 0.32 0.35 0.36 0.37 0.36 0.33 0.31 0.30 0.31 0.35 0.36 0.31 0.23 0.15 0.14 0.23 0.44 0.63 0.76 0.82 0.78 0.67 0.57 0.51 0.37 0.30
0.01 0.02 0.04 0.05 0.06 0.07 0.09 0.11 0.14 0.19 0.22 0.22 0.21 0.20 0.18 0.19 0.22 0.27 0.29 0.26 0.27 0.25 0.23 0.24 0.26 0.28 0.29 0.24 0.18 0.18 0.18 0.18 0.22 0.37 0.64 0.85 0.99 1.03 1.00 0.87 0.77 0.64 0.51
0.02 0.03 0.04 0.04 0.05 0.05 0.06 0.07 0.10 0.16 0.24 0.27 0.24 0.21 0.19 0.20 0.22 0.23 0.24 0.23 0.20 0.18 0.19 0.20 0.17 0.14 0.14 0.12 0.09 0.08 0.09 0.11 0.17 0.35 0.62 0.84 1.01 1.07 1.17 1.16 1.06 0.89 0.71

GEFSMW_prec_meanprecacc_066.txt.gz
Total_Precipitation_Accumulation
1.13 1.17 1.15 1.03 1.17 1.28 1.18 1.21 1.10 0.93 0.58 0.39 0.25 0.17 0.15 0.14 0.13 0.16 0.16 0.19 0.23 0.28 0.34 0.29 0.32 0.29 0.24 0.24 0.26 0.30 0.30 0.28 0.29 0.29 0.24 0.20 0.20 0.20 0.16 0.16 0.21 0.27 0.33
0.84 0.75 0.69 0.73 0.67 0.69 0.69 0.64 0.62 0.48 0.29 0.20 0.16 0.14 0.12 0.08 0.07 0.07 0.09 0.09 0.12 0.17 0.23 0.30 0.25 0.25 0.25 0.25 0.24 0.27 0.25 0.22 0.24 0.28 0.24 0.17 0.14 0.16 0.11 0.19 0.22 0.26 0.40
0.54 0.43 0.39 0.38 0.49 0.65 0.57 0.38 0.34 0.26 0.17 0.12 0.11 0.10 0.10 0.10 0.09 0.08 0.07 0.08 0.07 0.09 0.14 0.21 0.24 0.27 0.24 0.27 0.32 0.30 0.27 0.21 0.19 0.24 0.29 0.21 0.14 0.16 0.18 0.22 0.24 0.29 0.41
0.28 0.28 0.25 0.25 0.31 0.39 0.37 0.30 0.27 0.24 0.14 0.10 0.09 0.08 0.07 0.08 0.08 0.07 0.06 0.07 0.06 0.07 0.08 0.10 0.15 0.22 0.26 0.33 0.26 0.29 0.30 0.25 0.19 0.19 0.21 0.20 0.20 0.21 0.20 0.24 0.24 0.29 0.36
0.11 0.15 0.15 0.15 0.14 0.15 0.19 0.22 0.29 0.32 0.21 0.15 0.11 0.10 0.08 0.07 0.07 0.07 0.07 0.08 0.10 0.11 0.12 0.12 0.11 0.12 0.19 0.26 0.29 0.35 0.32 0.32 0.27 0.22 0.19 0.20 0.18 0.18 0.16 0.17 0.22 0.23 0.19
0.05 0.08 0.09 0.09 0.09 0.10 0.11 0.14 0.22 0.28 0.22 0.17 0.14 0.16 0.15 0.13 0.12 0.11 0.11 0.14 0.17 0.19 0.19 0.20 0.20 0.19 0.17 0.17 0.19 0.24 0.30 0.35 0.36 0.28 0.22 0.24 0.21 0.16 0.14 0.10 0.11 0.18 0.14
0.02 0.04 0.06 0.06 0.06 0.06 0.06 0.06 0.10 0.14 0.13 0.11 0.11 0.16 0.24 0.30 0.31 0.26 0.22 0.20 0.21 0.23 0.23 0.22 0.24 0.27 0.27 0.25 0.20 0.16 0.20 0.28 0.33 0.30 0.27 0.23 0.18 0.18 0.20 0.15 0.09 0.09 0.09
0.01 0.01 0.03 0.04 0.02 0.02 0.02 0.03 0.04 0.03 0.03 0.04 0.06 0.07 0.12 0.18 0.26 0.32 0.30 0.30 0.32 0.27 0.23 0.21 0.22 0.26 0.30 0.31 0.28 0.22 0.20 0.22 0.26 0.29 0.34 0.29 0.15 0.15 0.20 0.20 0.20 0.16 0.12
0.00 0.00 0.01 0.01 0.00 0.00 0.00 0.01 0.01 0.01 0.01 0.01 0.01 0.02 0.02 0.04 0.06 0.10 0.14 0.21 0.31 0.30 0.24 0.20 0.19 0.22 0.25 0.30 0.31 0.30 0.29 0.27 0.24 0.28 0.35 0.33 0.24 0.17 0.15 0.21 0.26 0.29 0.23
0.00 0.00 0.00 0.00 0.00 0.00 0.00 0.00 0.00 0.00 0.00 0.01 0.00 0.00 0.01 0.01 0.03 0.04 0.04 0.06 0.11 0.15 0.15 0.15 0.15 0.17 0.19 0.23 0.29 0.34 0.40 0.42 0.38 0.33 0.35 0.37 0.35 0.32 0.24 0.23 0.26 0.30 0.30
0.00 0.00 0.00 0.00 0.00 0.00 0.00 0.00 0.00 0.00 0.00 0.00 0.00 0.00 0.00 0.00 0.00 0.01 0.01 0.02 0.02 0.03 0.04 0.06 0.08 0.10 0.12 0.15 0.21 0.27 0.38 0.51 0.59 0.57 0.50 0.44 0.44 0.43 0.37 0.34 0.30 0.30 0.33
0.00 0.00 0.00 0.00 0.00 0.00 0.00 0.00 0.00 0.00 0.00 0.00 0.00 0.01 0.00 0.00 0.00 0.00 0.00 0.00 0.01 0.01 0.01 0.02 0.02 0.03 0.04 0.07 0.11 0.17 0.24 0.37 0.53 0.69 0.72 0.63 0.56 0.51 0.43 0.39 0.37 0.35 0.39
0.00 0.00 0.00 0.00 0.00 0.00 0.00 0.00 0.00 0.00 0.00 0.00 0.00 0.01 0.00 0.01 0.01 0.01 0.01 0.01 0.01 0.01 0.01 0.02 0.02 0.03 0.04 0.06 0.07 0.09 0.11 0.17 0.27 0.44 0.65 0.74 0.72 0.59 0.52 0.45 0.40 0.40 0.40
0.01 0.00 0.00 0.00 0.00 0.00 0.00 0.00 0.00 0.00 0.00 0.00 0.01 0.01 0.01 0.01 0.01 0.01 0.01 0.01 0.02 0.02 0.02 0.03 0.03 0.04 0.04 0.05 0.08 0.09 0.10 0.12 0.14 0.21 0.34 0.52 0.69 0.68 0.61 0.52 0.46 0.45 0.47
0.01 0.01 0.01 0.00 0.00 0.00 0.00 0.00 0.00 0.00 0.01 0.02 0.02 0.01 0.01 0.01 0.01 0.02 0.02 0.03 0.03 0.03 0.05 0.06 0.07 0.07 0.07 0.05 0.07 0.13 0.14 0.16 0.16 0.15 0.17 0.23 0.38 0.53 0.60 0.55 0.50 0.49 0.51
0.02 0.01 0.01 0.01 0.01 0.00 0.00 0.00 0.01 0.01 0.01 0.01 0.02 0.02 0.03 0.04 0.04 0.05 0.05 0.06 0.07 0.09 0.11 0.11 0.12 0.12 0.08 0.06 0.08 0.10 0.15 0.23 0.28 0.25 0.23 0.19 0.18 0.26 0.38 0.46 0.49 0.49 0.48
0.02 0.02 0.02 0.02 0.02 0.01 0.01 0.01 0.01 0.01 0.02 0.02 0.02 0.03 0.04 0.05 0.07 0.09 0.11 0.12 0.13 0.14 0.17 0.16 0.16 0.16 0.16 0.13 0.10 0.07 0.14 0.23 0.31 0.37 0.37 0.23 0.13 0.18 0.25 0.32 0.38 0.40 0.38
0.03 0.04 0.04 0.03 0.03 0.03 0.03 0.03 0.02 0.02 0.03 0.03 0.04 0.06 0.08 0.10 0.12 0.14 0.16 0.19 0.21 0.21 0.21 0.21 0.21 0.22 0.21 0.17 0.13 0.11 0.17 0.24 0.25 0.33 0.41 0.35 0.29 0.28 0.32 0.32 0.31 0.31 0.30
0.04 0.03 0.03 0.03 0.03 0.03 0.04 0.04 0.04 0.04 0.05 0.06 0.08 0.11 0.13 0.16 0.18 0.19 0.22 0.26 0.28 0.25 0.23 0.23 0.25 0.28 0.28 0.25 0.17 0.14 0.24 0.31 0.28 0.30 0.36 0.41 0.39 0.31 0.25 0.30 0.27 0.25 0.26
0.03 0.03 0.02 0.03 0.03 0.05 0.05 0.05 0.07 0.08 0.11 0.12 0.14 0.18 0.20 0.22 0.23 0.24 0.26 0.29 0.32 0.32 0.30 0.27 0.29 0.33 0.34 0.32 0.19 0.16 0.26 0.34 0.34 0.38 0.44 0.47 0.43 0.32 0.21 0.28 0.31 0.26 0.23
0.04 0.03 0.02 0.02 0.04 0.06 0.07 0.10 0.11 0.13 0.14 0.15 0.18 0.20 0.22 0.24 0.26 0.28 0.30 0.32 0.34 0.32 0.30 0.29 0.31 0.36 0.35 0.31 0.19 0.16 0.24 0.32 0.36 0.36 0.39 0.49 0.44 0.35 0.24 0.26 0.31 0.26 0.26
0.03 0.03 0.03 0.03 0.05 0.08 0.10 0.12 0.13 0.13 0.13 0.16 0.19 0.21 0.24 0.27 0.29 0.33 0.34 0.33 0.32 0.29 0.28 0.28 0.29 0.34 0.39 0.31 0.22 0.13 0.16 0.27 0.35 0.46 0.49 0.56 0.53 0.41 0.33 0.29 0.28 0.23 0.20
0.01 0.02 0.03 0.04 0.06 0.08 0.11 0.15 0.15 0.15 0.16 0.19 0.21 0.22 0.23 0.27 0.30 0.35 0.36 0.36 0.37 0.36 0.32 0.30 0.26 0.28 0.37 0.35 0.19 0.13 0.12 0.20 0.33 0.53 0.68 0.72 0.68 0.58 0.48 0.41 0.37 0.28 0.24
0.01 0.02 0.04 0.05 0.06 0.07 0.10 0.14 0.16 0.18 0.21 0.21 0.20 0.21 0.21 0.21 0.25 0.32 0.36 0.37 0.37 0.36 0.33 0.31 0.31 0.31 0.35 0.37 0.32 0.25 0.17 0.17 0.26 0.46 0.65 0.78 0.85 0.80 0.69 0.59 0.53 0.39 0.32
0.02 0.03 0.04 0.05 0.06 0.07 0.09 0.11 0.14 0.19 0.22 0.22 0.21 0.20 0.18 0.19 0.22 0.27 0.29 0.26 0.28 0.25 0.23 0.24 0.26 0.28 0.30 0.24 0.19 0.18 0.19 0.19 0.23 0.39 0.66 0.87 1.01 1.05 1.02 0.90 0.80 0.67 0.55
0.02 0.03 0.04 0.04 0.05 0.05 0.06 0.07 0.10 0.16 0.24 0.27 0.24 0.21 0.19 0.20 0.22 0.23 0.24 0.23 0.20 0.18 0.19 0.20 0.18 0.14 0.15 0.13 0.10 0.09 0.10 0.12 0.18 0.37 0.63 0.85 1.03 1.10 1.20 1.21 1.12 0.95 0.77

GEFSMW_prec_meanprecacc_072.txt.gz
Total_Precipitation_Accumulation
1.29 1.35 1.34 1.20 1.32 1.42 1.34 1.36 1.29 1.09 0.71 0.48 0.28 0.20 0.17 0.15 0.14 0.16 0.16 0.19 0.23 0.28 0.35 0.30 0.33 0.30 0.25 0.25 0.27 0.30 0.31 0.29 0.29 0.29 0.24 0.21 0.20 0.21 0.17 0.17 0.22 0.29 0.36
0.95 0.90 0.83 0.88 0.79 0.81 0.81 0.78 0.78 0.64 0.42 0.28 0.20 0.17 0.13 0.09 0.08 0.07 0.09 0.09 0.12 0.17 0.23 0.31 0.25 0.26 0.26 0.25 0.25 0.27 0.25 0.22 0.24 0.28 0.25 0.18 0.16 0.18 0.12 0.20 0.23 0.27 0.41
0.60 0.51 0.48 0.48 0.62 0.79 0.70 0.52 0.50 0.40 0.28 0.19 0.14 0.12 0.12 0.11 0.09 0.08 0.07 0.08 0.07 0.09 0.14 0.21 0.24 0.27 0.25 0.28 0.32 0.30 0.27 0.21 0.19 0.24 0.29 0.22 0.17 0.19 0.19 0.22 0.24 0.29 0.41
0.32 0.34 0.33 0.34 0.42 0.52 0.51 0.45 0.40 0.34 0.22 0.15 0.11 0.10 0.09 0.09 0.08 0.07 0.07 0.07 0.06 0.07 0.08 0.10 0.15 0.22 0.26 0.33 0.26 0.29 0.30 0.26 0.19 0.19 0.21 0.20 0.21 0.22 0.22 0.24 0.24 0.29 0.36
0.12 0.19 0.21 0.23 0.23 0.23 0.32 0.35 0.41 0.41 0.27 0.20 0.14 0.12 0.10 0.08 0.07 0.07 0.09 0.09 0.10 0.11 0.12 0.12 0.11 0.12 0.19 0.26 0.29 0.35 0.32 0.32 0.27 0.22 0.19 0.20 0.18 0.18 0.17 0.19 0.23 0.23 0.19
0.06 0.10 0.12 0.15 0.17 0.17 0.19 0.23 0.32 0.37 0.28 0.21 0.18 0.18 0.18 0.16 0.14 0.13 0.13 0.15 0.18 0.20 0.19 0.20 0.20 0.20 0.18 0.17 0.19 0.24 0.30 0.35 0.36 0.28 0.22 0.24 0.21 0.16 0.14 0.10 0.12 0.19 0.14
0.03 0.05 0.07 0.09 0.11 0.12 0.11 0.11 0.16 0.21 0.18 0.15 0.14 0.18 0.27 0.33 0.33 0.27 0.24 0.21 0.21 0.23 0.23 0.23 0.24 0.27 0.28 0.25 0.20 0.16 0.20 0.28 0.33 0.31 0.27 0.23 0.18 0.18 0.20 0.15 0.09 0.10 0.09
0.01 0.02 0.04 0.05 0.05 0.06 0.06 0.06 0.09 0.10 0.09 0.08 0.10 0.10 0.14 0.19 0.27 0.34 0.31 0.31 0.32 0.27 0.23 0.21 0.22 0.26 0.30 0.31 0.28 0.22 0.20 0.22 0.26 0.29 0.34 0.29 0.15 0.15 0.20 0.20 0.20 0.16 0.12
0.00 0.00 0.01 0.01 0.02 0.03 0.03 0.03 0.05 0.07 0.06 0.04 0.04 0.04 0.04 0.05 0.08 0.13 0.16 0.21 0.31 0.31 0.24 0.20 0.19 0.22 0.25 0.30 0.31 0.30 0.29 0.27 0.24 0.28 0.35 0.34 0.24 0.17 0.15 0.21 0.26 0.29 0.23
0.00 0.00 0.00 0.00 0.01 0.03 0.03 0.02 0.03 0.04 0.04 0.03 0.02 0.01 0.02 0.03 0.04 0.05 0.05 0.07 0.11 0.15 0.15 0.15 0.15 0.17 0.19 0.23 0.29 0.34 0.40 0.42 0.38 0.34 0.35 0.37 0.35 0.32 0.24 0.23 0.26 0.30 0.30
0.00 0.00 0.00 0.00 0.00 0.01 0.01 0.02 0.03 0.03 0.02 0.02 0.02 0.02 0.02 0.01 0.02 0.03 0.03 0.03 0.03 0.03 0.04 0.06 0.08 0.10 0.12 0.15 0.21 0.27 0.38 0.52 0.59 0.57 0.50 0.45 0.44 0.43 0.37 0.34 0.30 0.30 0.33
0.00 0.00 0.00 0.00 0.00 0.01 0.01 0.01 0.03 0.02 0.01 0.01 0.02 0.02 0.02 0.02 0.03 0.03 0.03 0.03 0.03 0.02 0.02 0.02 0.03 0.03 0.04 0.07 0.11 0.17 0.24 0.37 0.53 0.69 0.72 0.63 0.56 0.51 0.43 0.39 0.37 0.35 0.39
0.00 0.00 0.01 0.00 0.00 0.01 0.01 0.01 0.04 0.04 0.02 0.01 0.01 0.03 0.03 0.03 0.05 0.06 0.05 0.05 0.05 0.04 0.03 0.03 0.03 0.03 0.04 0.06 0.07 0.09 0.11 0.17 0.27 0.44 0.65 0.74 0.72 0.59 0.52 0.46 0.41 0.40 0.40
0.01 0.00 0.01 0.02 0.01 0.01 0.01 0.01 0.01 0.02 0.02 0.03 0.04 0.06 0.07 0.07 0.07 0.07 0.06 0.06 0.07 0.06 0.07 0.07 0.06 0.06 0.05 0.06 0.08 0.09 0.10 0.12 0.14 0.21 0.34 0.52 0.69 0.68 0.61 0.52 0.46 0.46 0.47
0.01 0.01 0.02 0.03 0.03 0.02 0.02 0.02 0.02 0.03 0.04 0.07 0.08 0.09 0.09 0.08 0.09 0.09 0.09 0.10 0.12 0.10 0.12 0.12 0.11 0.10 0.09 0.06 0.09 0.14 0.14 0.17 0.16 0.15 0.17 0.23 0.38 0.53 0.60 0.55 0.51 0.50 0.52
0.02 0.02 0.03 0.03 0.04 0.03 0.03 0.04 0.04 0.05 0.06 0.10 0.13 0.16 0.15 0.14 0.17 0.18 0.17 0.19 0.19 0.20 0.22 0.19 0.17 0.16 0.11 0.10 0.11 0.12 0.16 0.24 0.29 0.27 0.24 0.20 0.18 0.26 0.38 0.47 0.49 0.49 0.48
0.03 0.03 0.04 0.05 0.05 0.05 0.05 0.06 0.05 0.06 0.08 0.10 0.13 0.16 0.19 0.22 0.26 0.27 0.28 0.26 0.26 0.27 0.29 0.27 0.24 0.22 0.22 0.20 0.16 0.11 0.16 0.24 0.33 0.39 0.39 0.24 0.14 0.19 0.26 0.34 0.39 0.40 0.38
0.04 0.04 0.04 0.05 0.05 0.06 0.08 0.09 0.09 0.09 0.11 0.13 0.16 0.18 0.20 0.22 0.26 0.30 0.34 0.37 0.39 0.36 0.34 0.31 0.29 0.29 0.26 0.22 0.17 0.15 0.20 0.25 0.26 0.34 0.42 0.38 0.31 0.30 0.34 0.36 0.35 0.34 0.32
0.05 0.04 0.04 0.05 0.06 0.07 0.08 0.09 0.09 0.10 0.11 0.13 0.15 0.19 0.23 0.25 0.29 0.35 0.42 0.48 0.48 0.41 0.37 0.33 0.34 0.37 0.36 0.31 0.22 0.19 0.26 0.31 0.28 0.31 0.37 0.42 0.42 0.34 0.28 0.34 0.31 0.29 0.30
0.04 0.04 0.03 0.04 0.05 0.06 0.08 0.09 0.11 0.13 0.16 0.18 0.20 0.24 0.28 0.30 0.32 0.34 0.38 0.40 0.42 0.41 0.38 0.34 0.37 0.41 0.42 0.39 0.25 0.20 0.28 0.35 0.35 0.39 0.45 0.48 0.45 0.34 0.24 0.31 0.36 0.31 0.27
0.04 0.03 0.03 0.03 0.05 0.07 0.09 0.12 0.13 0.15 0.16 0.18 0.21 0.23 0.24 0.27 0.29 0.31 0.33 0.37 0.39 0.38 0.36 0.34 0.36 0.41 0.41 0.36 0.23 0.19 0.26 0.33 0.37 0.37 0.40 0.52 0.47 0.36 0.25 0.28 0.34 0.29 0.29
0.03 0.03 0.04 0.05 0.07 0.09 0.12 0.14 0.15 0.15 0.15 0.17 0.20 0.22 0.25 0.28 0.29 0.33 0.34 0.33 0.33 0.31 0.30 0.31 0.32 0.38 0.42 0.33 0.24 0.16 0.19 0.29 0.36 0.46 0.50 0.58 0.55 0.43 0.34 0.30 0.30 0.24 0.22
0.02 0.03 0.04 0.05 0.07 0.10 0.13 0.16 0.17 0.16 0.18 0.21 0.22 0.23 0.24 0.27 0.30 0.35 0.36 0.36 0.37 0.36 0.33 0.30 0.27 0.29 0.38 0.36 0.19 0.13 0.13 0.21 0.34 0.54 0.69 0.73 0.69 0.59 0.49 0.42 0.39 0.30 0.26
0.02 0.03 0.04 0.06 0.07 0.08 0.11 0.15 0.17 0.19 0.21 0.22 0.21 0.21 0.21 0.21 0.25 0.32 0.36 0.37 0.37 0.36 0.33 0.31 0.31 0.31 0.36 0.37 0.32 0.25 0.17 0.17 0.26 0.47 0.66 0.79 0.85 0.81 0.70 0.60 0.55 0.41 0.34
0.02 0.03 0.04 0.05 0.06 0.07 0.09 0.11 0.14 0.19 0.22 0.22 0.21 0.20 0.18 0.19 0.22 0.27 0.29 0.26 0.28 0.25 0.23 0.24 0.26 0.28 0.30 0.25 0.19 0.19 0.19 0.19 0.23 0.39 0.66 0.87 1.01 1.05 1.03 0.91 0.81 0.69 0.57
0.03 0.04 0.04 0.04 0.05 0.05 0.06 0.07 0.10 0.16 0.24 0.27 0.24 0.21 0.19 0.20 0.22 0.23 0.24 0.23 0.20 0.18 0.19 0.20 0.18 0.14 0.15 0.13 0.10 0.09 0.10 0.12 0.18 0.37 0.63 0.86 1.03 1.11 1.22 1.23 1.14 0.98 0.82

GEFSMW_prec_meanprecacc_078.txt.gz
Total_Precipitation_Accumulation
1.40 1.52 1.61 1.73 1.79 1.74 1.62 1.60 1.47 1.21 0.80 0.54 0.31 0.21 0.18 0.16 0.14 0.16 0.16 0.19 0.23 0.28 0.35 0.30 0.33 0.30 0.25 0.25 0.27 0.30 0.31 0.29 0.29 0.29 0.25 0.21 0.21 0.22 0.18 0.19 0.24 0.32 0.42
1.03 1.01 1.02 1.20 1.11 1.03 1.01 0.96 0.93 0.73 0.47 0.33 0.22 0.17 0.13 0.09 0.08 0.08 0.09 0.09 0.12 0.17 0.23 0.31 0.25 0.26 0.26 0.25 0.25 0.27 0.25 0.22 0.24 0.28 0.25 0.18 0.17 0.18 0.13 0.21 0.25 0.29 0.43
0.65 0.59 0.61 0.68 0.82 0.97 0.87 0.69 0.65 0.50 0.33 0.21 0.15 0.13 0.12 0.12 0.10 0.08 0.07 0.08 0.07 0.09 0.14 0.21 0.24 0.27 0.25 0.28 0.32 0.30 0.27 0.21 0.19 0.24 0.29 0.23 0.17 0.19 0.19 0.23 0.25 0.30 0.42
0.35 0.40 0.41 0.44 0.55 0.66 0.65 0.61 0.57 0.45 0.29 0.19 0.13 0.11 0.10 0.10 0.09 0.07 0.07 0.07 0.06 0.07 0.08 0.10 0.15 0.22 0.26 0.33 0.26 0.29 0.30 0.26 0.19 0.19 0.21 0.20 0.21 0.22 0.22 0.25 0.24 0.29 0.36
0.15 0.24 0.27 0.30 0.31 0.34 0.44 0.50 0.55 0.52 0.35 0.24 0.17 0.14 0.11 0.09 0.08 0.08 0.09 0.09 0.10 0.11 0.12 0.12 0.11 0.12 0.19 0.26 0.29 0.35 0.32 0.32 0.27 0.22 0.19 0.20 0.18 0.18 0.17 0.19 0.23 0.23 0.19
0.08 0.14 0.17 0.19 0.23 0.26 0.28 0.33 0.42 0.48 0.37 0.27 0.21 0.21 0.20 0.17 0.15 0.13 0.14 0.15 0.18 0.20 0.19 0.20 0.20 0.20 0.18 0.17 0.19 0.24 0.30 0.35 0.36 0.28 0.22 0.24 0.21 0.16 0.14 0.10 0.12 0.19 0.14
0.04 0.07 0.10 0.11 0.15 0.18 0.18 0.18 0.25 0.30 0.27 0.22 0.18 0.21 0.29 0.34 0.33 0.28 0.24 0.21 0.21 0.23 0.23 0.23 0.24 0.27 0.28 0.25 0.20 0.16 0.20 0.28 0.33 0.31 0.27 0.23 0.18 0.18 0.20 0.15 0.09 0.10 0.09
0.02 0.02 0.04 0.07 0.08 0.11 0.12 0.12 0.16 0.18 0.17 0.13 0.14 0.13 0.16 0.20 0.28 0.35 0.31 0.31 0.32 0.27 0.23 0.21 0.22 0.26 0.30 0.31 0.28 0.22 0.20 0.22 0.26 0.29 0.34 0.29 0.15 0.15 0.20 0.20 0.20 0.16 0.12
0.01 0.01 0.01 0.04 0.05 0.05 0.07 0.07 0.10 0.13 0.12 0.09 0.08 0.06 0.06 0.06 0.09 0.14 0.16 0.21 0.31 0.31 0.24 0.20 0.19 0.22 0.25 0.30 0.31 0.30 0.29 0.27 0.24 0.28 0.35 0.34 0.24 0.17 0.15 0.21 0.26 0.29 0.23
0.01 0.01 0.01 0.01 0.02 0.04 0.06 0.06 0.08 0.09 0.09 0.07 0.05 0.03 0.05 0.04 0.05 0.06 0.06 0.07 0.12 0.15 0.16 0.16 0.16 0.17 0.19 0.23 0.29 0.34 0.40 0.42 0.38 0.34 0.35 0.37 0.35 0.32 0.24 0.23 0.26 0.30 0.30
0.02 0.02 0.02 0.01 0.01 0.04 0.06 0.06 0.08 0.07 0.05 0.05 0.04 0.04 0.04 0.03 0.03 0.03 0.03 0.04 0.04 0.04 0.05 0.07 0.09 0.10 0.12 0.15 0.21 0.27 0.38 0.52 0.59 0.57 0.50 0.45 0.44 0.43 0.37 0.34 0.30 0.30 0.33
0.02 0.02 0.02 0.02 0.02 0.05 0.07 0.08 0.08 0.06 0.03 0.03 0.04 0.04 0.04 0.04 0.05 0.05 0.05 0.05 0.05 0.05 0.04 0.06 0.07 0.05 0.06 0.08 0.12 0.18 0.25 0.37 0.53 0.69 0.72 0.63 0.56 0.51 0.43 0.39 0.37 0.35 0.39
0.02 0.02 0.04 0.08 0.06 0.06 0.08 0.10 0.12 0.09 0.06 0.05 0.06 0.07 0.07 0.08 0.09 0.10 0.11 0.12 0.12 0.11 0.10 0.10 0.10 0.09 0.09 0.11 0.11 0.12 0.13 0.18 0.27 0.44 0.66 0.75 0.72 0.59 0.52 0.46 0.41 0.40 0.40
0.03 0.03 0.04 0.08 0.07 0.06 0.07 0.08 0.09 0.09 0.11 0.15 0.19 0.21 0.19 0.21 0.23 0.20 0.20 0.21 0.22 0.20 0.20 0.21 0.21 0.18 0.16 0.16 0.16 0.14 0.14 0.14 0.16 0.23 0.35 0.53 0.70 0.68 0.61 0.53 0.46 0.46 0.48
0.04 0.05 0.06 0.08 0.11 0.12 0.12 0.13 0.15 0.18 0.24 0.31 0.33 0.32 0.29 0.29 0.30 0.33 0.34 0.34 0.35 0.36 0.40 0.37 0.32 0.30 0.27 0.23 0.24 0.27 0.25 0.25 0.23 0.21 0.22 0.26 0.41 0.56 0.63 0.58 0.53 0.54 0.55
0.07 0.08 0.11 0.16 0.17 0.19 0.22 0.27 0.29 0.33 0.44 0.54 0.57 0.62 0.61 0.59 0.57 0.54 0.54 0.59 0.58 0.58 0.58 0.53 0.50 0.47 0.37 0.34 0.33 0.32 0.33 0.38 0.41 0.36 0.34 0.29 0.27 0.34 0.45 0.53 0.56 0.56 0.55
0.07 0.09 0.12 0.17 0.21 0.24 0.27 0.33 0.39 0.43 0.44 0.48 0.50 0.56 0.61 0.63 0.63 0.64 0.65 0.67 0.70 0.70 0.69 0.68 0.64 0.61 0.57 0.48 0.40 0.33 0.35 0.39 0.46 0.51 0.49 0.33 0.21 0.27 0.34 0.42 0.46 0.47 0.44
0.08 0.09 0.12 0.15 0.19 0.23 0.29 0.36 0.37 0.36 0.37 0.38 0.37 0.35 0.36 0.38 0.41 0.49 0.57 0.63 0.69 0.71 0.71 0.66 0.57 0.53 0.48 0.43 0.36 0.32 0.36 0.40 0.39 0.48 0.54 0.48 0.38 0.37 0.41 0.42 0.39 0.37 0.35
0.09 0.09 0.10 0.12 0.14 0.17 0.19 0.22 0.23 0.23 0.24 0.25 0.27 0.27 0.28 0.31 0.34 0.42 0.52 0.63 0.67 0.63 0.58 0.54 0.53 0.53 0.51 0.48 0.38 0.34 0.40 0.44 0.40 0.42 0.48 0.52 0.48 0.38 0.32 0.36 0.33 0.31 0.31
0.07 0.07 0.07 0.08 0.09 0.10 0.12 0.14 0.17 0.20 0.23 0.25 0.27 0.29 0.32 0.34 0.37 0.41 0.46 0.48 0.51 0.50 0.48 0.45 0.47 0.51 0.54 0.51 0.37 0.32 0.39 0.44 0.43 0.46 0.53 0.56 0.51 0.39 0.28 0.34 0.38 0.32 0.28
0.06 0.05 0.05 0.06 0.07 0.08 0.10 0.13 0.15 0.17 0.19 0.21 0.23 0.25 0.26 0.30 0.32 0.35 0.37 0.40 0.42 0.41 0.39 0.37 0.40 0.45 0.46 0.41 0.29 0.26 0.33 0.40 0.44 0.44 0.47 0.57 0.50 0.39 0.27 0.30 0.34 0.29 0.30
0.04 0.04 0.05 0.05 0.07 0.10 0.12 0.15 0.15 0.15 0.15 0.17 0.21 0.23 0.26 0.28 0.30 0.34 0.35 0.34 0.34 0.32 0.31 0.32 0.33 0.39 0.43 0.34 0.26 0.17 0.20 0.30 0.38 0.48 0.52 0.60 0.57 0.44 0.35 0.31 0.30 0.25 0.23
0.02 0.03 0.04 0.05 0.07 0.10 0.13 0.16 0.17 0.16 0.18 0.21 0.22 0.23 0.24 0.27 0.31 0.35 0.36 0.37 0.37 0.36 0.33 0.30 0.27 0.29 0.38 0.36 0.19 0.13 0.13 0.21 0.34 0.54 0.70 0.73 0.70 0.60 0.49 0.42 0.40 0.31 0.26
0.02 0.03 0.04 0.06 0.07 0.08 0.11 0.15 0.17 0.19 0.21 0.22 0.21 0.21 0.21 0.21 0.25 0.32 0.36 0.37 0.37 0.36 0.33 0.31 0.31 0.31 0.36 0.37 0.32 0.25 0.17 0.17 0.26 0.47 0.66 0.79 0.85 0.81 0.70 0.61 0.55 0.41 0.34
0.02 0.03 0.04 0.05 0.06 0.07 0.09 0.11 0.14 0.19 0.22 0.22 0.21 0.20 0.18 0.19 0.22 0.27 0.29 0.26 0.28 0.25 0.23 0.24 0.26 0.28 0.30 0.25 0.19 0.19 0.19 0.19 0.23 0.39 0.66 0.87 1.01 1.05 1.03 0.91 0.81 0.69 0.58
0.03 0.04 0.04 0.04 0.05 0.05 0.06 0.07 0.10 0.16 0.24 0.27 0.24 0.21 0.19 0.20 0.22 0.23 0.24 0.23 0.20 0.18 0.19 0.20 0.18 0.14 0.15 0.13 0.10 0.09 0.10 0.12 0.18 0.37 0.63 0.86 1.04 1.11 1.22 1.23 1.15 0.99 0.83

GEFSMW_prec_meanprecacc_084.txt.gz
Total_Precipitation_Accumulation
1.52 1.71 1.94 2.19 2.26 2.22 2.10 1.98 1.79 1.47 0.98 0.68 0.43 0.29 0.23 0.19 0.17 0.18 0.17 0.20 0.23 0.29 0.35 0.30 0.33 0.30 0.25 0.25 0.27 0.31 0.31 0.29 0.29 0.30 0.25 0.22 0.23 0.23 0.19 0.19 0.25 0.33 0.43
1.08 1.11 1.23 1.49 1.43 1.41 1.41 1.34 1.21 0.93 0.60 0.44 0.32 0.26 0.20 0.13 0.10 0.09 0.10 0.10 0.12 0.17 0.24 0.31 0.25 0.26 0.26 0.26 0.25 0.27 0.25 0.22 0.25 0.28 0.26 0.19 0.17 0.19 0.13 0.21 0.25 0.29 0.43
0.68 0.64 0.72 0.83 1.02 1.25 1.14 0.96 0.89 0.70 0.48 0.34 0.26 0.21 0.18 0.15 0.12 0.09 0.08 0.08 0.07 0.09 0.14 0.21 0.24 0.27 0.25 0.28 0.33 0.30 0.27 0.21 0.19 0.24 0.30 0.23 0.17 0.19 0.19 0.23 0.25 0.30 0.42
0.37 0.43 0.45 0.50 0.67 0.82 0.82 0.78 0.74 0.64 0.43 0.31 0.21 0.16 0.14 0.12 0.10 0.08 0.07 0.07 0.06 0.07 0.08 0.10 0.15 0.22 0.26 0.34 0.26 0.29 0.30 0.26 0.19 0.20 0.21 0.21 0.21 0.22 0.22 0.25 0.24 0.29 0.36
0.16 0.25 0.30 0.35 0.39 0.44 0.55 0.62 0.72 0.70 0.48 0.34 0.23 0.19 0.15 0.12 0.09 0.08 0.09 0.09 0.10 0.11 0.12 0.12 0.11 0.12 0.19 0.26 0.29 0.35 0.32 0.32 0.27 0.22 0.19 0.20 0.18 0.18 0.17 0.19 0.23 0.23 0.19
0.09 0.15 0.19 0.23 0.29 0.33 0.37 0.44 0.56 0.63 0.50 0.37 0.28 0.26 0.24 0.20 0.17 0.14 0.14 0.15 0.18 0.20 0.19 0.20 0.20 0.20 0.18 0.17 0.19 0.24 0.30 0.35 0.36 0.28 0.22 0.24 0.21 0.16 0.14 0.11 0.12 0.19 0.14
0.05 0.08 0.11 0.13 0.20 0.24 0.24 0.25 0.35 0.42 0.36 0.29 0.26 0.26 0.33 0.37 0.36 0.30 0.25 0.22 0.21 0.23 0.23 0.23 0.24 0.27 0.28 0.25 0.20 0.16 0.20 0.28 0.33 0.31 0.27 0.23 0.18 0.18 0.20 0.15 0.09 0.10 0.09
0.02 0.03 0.05 0.09 0.13 0.15 0.17 0.18 0.25 0.29 0.25 0.20 0.20 0.18 0.20 0.24 0.31 0.37 0.33 0.32 0.33 0.28 0.23 0.22 0.22 0.26 0.30 0.31 0.28 0.22 0.20 0.22 0.26 0.29 0.34 0.29 0.15 0.15 0.20 0.20 0.20 0.16 0.12
0.01 0.01 0.02 0.05 0.07 0.07 0.11 0.12 0.18 0.22 0.19 0.16 0.14 0.11 0.10 0.10 0.13 0.16 0.17 0.22 0.32 0.32 0.24 0.20 0.19 0.22 0.25 0.30 0.31 0.30 0.29 0.27 0.24 0.28 0.35 0.34 0.24 0.17 0.15 0.21 0.26 0.29 0.23
0.01 0.01 0.01 0.03 0.05 0.06 0.09 0.12 0.15 0.16 0.15 0.14 0.11 0.08 0.10 0.09 0.10 0.09 0.07 0.08 0.12 0.16 0.16 0.16 0.16 0.17 0.19 0.23 0.29 0.34 0.40 0.42 0.38 0.34 0.35 0.37 0.35 0.32 0.24 0.23 0.26 0.30 0.30
0.02 0.02 0.02 0.03 0.03 0.05 0.08 0.10 0.13 0.13 0.10 0.10 0.11 0.09 0.09 0.08 0.09 0.08 0.06 0.06 0.06 0.06 0.06 0.08 0.10 0.11 0.12 0.16 0.21 0.27 0.38 0.52 0.59 0.57 0.50 0.45 0.44 0.43 0.37 0.34 0.30 0.30 0.33
0.03 0.03 0.03 0.03 0.03 0.06 0.09 0.10 0.11 0.11 0.09 0.10 0.12 0.11 0.12 0.12 0.11 0.10 0.08 0.09 0.08 0.07 0.07 0.08 0.09 0.08 0.07 0.09 0.13 0.19 0.26 0.37 0.53 0.69 0.73 0.63 0.56 0.51 0.43 0.39 0.37 0.35 0.39
0.03 0.04 0.06 0.08 0.06 0.07 0.10 0.13 0.16 0.15 0.13 0.13 0.15 0.16 0.17 0.17 0.17 0.17 0.17 0.19 0.17 0.15 0.13 0.13 0.14 0.13 0.12 0.12 0.13 0.14 0.15 0.20 0.29 0.46 0.66 0.75 0.72 0.60 0.52 0.46 0.41 0.40 0.40
0.04 0.05 0.06 0.10 0.10 0.09 0.13 0.16 0.19 0.21 0.23 0.26 0.31 0.31 0.29 0.30 0.31 0.27 0.25 0.27 0.29 0.27 0.26 0.27 0.27 0.24 0.22 0.21 0.22 0.22 0.21 0.21 0.21 0.27 0.38 0.55 0.71 0.69 0.62 0.53 0.47 0.47 0.49
0.06 0.07 0.10 0.12 0.15 0.17 0.18 0.23 0.31 0.35 0.43 0.51 0.52 0.47 0.40 0.38 0.38 0.39 0.40 0.42 0.45 0.47 0.50 0.46 0.40 0.39 0.36 0.31 0.34 0.39 0.37 0.36 0.31 0.27 0.28 0.32 0.46 0.61 0.67 0.61 0.56 0.56 0.57
0.10 0.11 0.15 0.19 0.21 0.24 0.31 0.38 0.45 0.53 0.70 0.86 0.85 0.81 0.75 0.71 0.67 0.63 0.63 0.68 0.69 0.70 0.68 0.61 0.58 0.56 0.47 0.43 0.41 0.40 0.40 0.45 0.47 0.43 0.41 0.37 0.36 0.42 0.52 0.60 0.62 0.61 0.59
0.11 0.13 0.17 0.22 0.28 0.33 0.38 0.46 0.54 0.61 0.67 0.73 0.73 0.76 0.78 0.78 0.78 0.77 0.77 0.77 0.78 0.78 0.77 0.76 0.74 0.72 0.70 0.60 0.49 0.40 0.41 0.45 0.51 0.57 0.57 0.42 0.31 0.38 0.44 0.52 0.55 0.55 0.52
0.12 0.14 0.17 0.21 0.27 0.34 0.40 0.48 0.50 0.50 0.53 0.54 0.54 0.50 0.51 0.52 0.53 0.58 0.64 0.68 0.74 0.75 0.75 0.71 0.63 0.60 0.57 0.52 0.45 0.41 0.45 0.48 0.47 0.55 0.62 0.56 0.47 0.44 0.47 0.47 0.44 0.43 0.41
0.14 0.14 0.15 0.18 0.22 0.25 0.27 0.30 0.32 0.33 0.35 0.35 0.38 0.34 0.35 0.37 0.39 0.46 0.55 0.66 0.70 0.66 0.60 0.57 0.57 0.58 0.56 0.53 0.43 0.40 0.46 0.50 0.46 0.48 0.52 0.56 0.53 0.44 0.36 0.40 0.35 0.33 0.34
0.12 0.11 0.11 0.12 0.13 0.14 0.16 0.18 0.22 0.25 0.29 0.30 0.31 0.32 0.33 0.36 0.39 0.42 0.46 0.49 0.52 0.51 0.49 0.46 0.48 0.53 0.56 0.55 0.42 0.39 0.45 0.49 0.48 0.51 0.57 0.60 0.55 0.43 0.32 0.37 0.41 0.35 0.31
0.10 0.08 0.08 0.08 0.10 0.11 0.13 0.16 0.17 0.19 0.20 0.22 0.24 0.25 0.27 0.31 0.33 0.36 0.38 0.41 0.43 0.43 0.41 0.38 0.41 0.46 0.47 0.43 0.31 0.28 0.36 0.43 0.46 0.46 0.49 0.59 0.54 0.41 0.29 0.32 0.36 0.31 0.32
0.07 0.07 0.07 0.07 0.09 0.11 0.14 0.16 0.16 0.16 0.16 0.18 0.21 0.23 0.26 0.28 0.30 0.34 0.35 0.34 0.34 0.32 0.32 0.33 0.34 0.40 0.44 0.35 0.26 0.18 0.21 0.31 0.39 0.49 0.53 0.60 0.58 0.44 0.35 0.31 0.30 0.25 0.23
0.05 0.05 0.05 0.06 0.08 0.11 0.13 0.17 0.17 0.17 0.18 0.21 0.22 0.23 0.24 0.27 0.31 0.35 0.36 0.37 0.37 0.36 0.33 0.30 0.27 0.29 0.38 0.37 0.19 0.14 0.13 0.21 0.34 0.55 0.70 0.74 0.70 0.60 0.49 0.42 0.40 0.31 0.26
0.03 0.04 0.05 0.06 0.07 0.08 0.11 0.15 0.17 0.19 0.21 0.22 0.21 0.21 0.21 0.21 0.25 0.32 0.36 0.37 0.37 0.36 0.33 0.31 0.31 0.31 0.36 0.37 0.32 0.25 0.17 0.17 0.26 0.47 0.66 0.79 0.85 0.81 0.70 0.61 0.55 0.41 0.34
0.03 0.03 0.04 0.06 0.07 0.07 0.09 0.11 0.14 0.19 0.22 0.22 0.21 0.20 0.18 0.19 0.22 0.27 0.29 0.26 0.28 0.25 0.23 0.24 0.26 0.28 0.30 0.25 0.19 0.19 0.19 0.19 0.23 0.39 0.66 0.87 1.01 1.05 1.03 0.91 0.81 0.69 0.58
0.05 0.05 0.05 0.05 0.05 0.05 0.06 0.07 0.10 0.16 0.24 0.27 0.24 0.21 0.19 0.20 0.22 0.23 0.24 0.23 0.20 0.18 0.19 0.20 0.18 0.14 0.15 0.13 0.10 0.09 0.10 0.12 0.18 0.37 0.63 0.86 1.04 1.11 1.22 1.23 1.15 0.99 0.83

GEFSMW_prec_meanprecacc_090.txt.gz
Total_Precipitation_Accumulation
1.54 1.76 2.03 2.32 2.39 2.41 2.32 2.20 2.01 1.63 1.11 0.81 0.54 0.39 0.32 0.25 0.21 0.21 0.19 0.22 0.25 0.30 0.37 0.32 0.34 0.31 0.26 0.26 0.29 0.33 0.33 0.30 0.30 0.32 0.29 0.25 0.26 0.26 0.23 0.22 0.29 0.36 0.46
1.09 1.16 1.31 1.58 1.54 1.56 1.60 1.51 1.41 1.11 0.72 0.56 0.43 0.36 0.30 0.20 0.15 0.13 0.12 0.11 0.13 0.18 0.25 0.32 0.26 0.27 0.27 0.26 0.26 0.28 0.26 0.23 0.25 0.30 0.29 0.22 0.22 0.22 0.14 0.22 0.26 0.30 0.45
0.69 0.67 0.76 0.91 1.13 1.40 1.32 1.13 1.06 0.88 0.62 0.48 0.37 0.31 0.26 0.21 0.17 0.14 0.11 0.10 0.09 0.10 0.15 0.23 0.25 0.28 0.25 0.28 0.33 0.30 0.28 0.21 0.20 0.25 0.31 0.25 0.20 0.23 0.21 0.24 0.26 0.30 0.43
0.37 0.45 0.50 0.58 0.75 0.95 0.97 0.93 0.90 0.82 0.59 0.43 0.29 0.23 0.19 0.16 0.14 0.12 0.10 0.09 0.08 0.07 0.08 0.11 0.16 0.23 0.26 0.34 0.26 0.29 0.31 0.26 0.19 0.20 0.22 0.21 0.22 0.24 0.24 0.26 0.25 0.30 0.37
0.17 0.28 0.34 0.41 0.45 0.52 0.63 0.73 0.86 0.91 0.67 0.47 0.32 0.26 0.20 0.16 0.13 0.12 0.11 0.10 0.11 0.11 0.12 0.12 0.11 0.12 0.19 0.26 0.29 0.35 0.32 0.32 0.28 0.22 0.19 0.20 0.18 0.19 0.17 0.20 0.24 0.24 0.20
0.10 0.18 0.22 0.27 0.33 0.39 0.44 0.50 0.65 0.79 0.67 0.50 0.38 0.33 0.31 0.25 0.19 0.16 0.16 0.16 0.18 0.20 0.19 0.20 0.20 0.20 0.18 0.17 0.19 0.24 0.30 0.35 0.36 0.28 0.22 0.24 0.21 0.16 0.14 0.11 0.13 0.19 0.15
0.05 0.09 0.13 0.15 0.22 0.27 0.28 0.29 0.40 0.52 0.49 0.39 0.35 0.34 0.42 0.43 0.39 0.32 0.27 0.24 0.22 0.24 0.23 0.23 0.25 0.27 0.28 0.25 0.20 0.16 0.20 0.28 0.33 0.31 0.28 0.23 0.18 0.18 0.20 0.16 0.09 0.10 0.09
0.02 0.03 0.06 0.10 0.14 0.17 0.20 0.21 0.29 0.35 0.34 0.28 0.27 0.26 0.27 0.29 0.34 0.40 0.35 0.34 0.34 0.29 0.24 0.22 0.23 0.26 0.30 0.31 0.28 0.22 0.20 0.22 0.26 0.29 0.34 0.29 0.15 0.15 0.20 0.21 0.20 0.17 0.13
0.01 0.01 0.02 0.06 0.08 0.08 0.12 0.14 0.21 0.26 0.25 0.26 0.23 0.19 0.17 0.15 0.18 0.20 0.19 0.23 0.34 0.33 0.26 0.21 0.20 0.23 0.26 0.30 0.32 0.30 0.29 0.27 0.24 0.28 0.35 0.34 0.24 0.17 0.15 0.21 0.26 0.29 0.23
0.01 0.01 0.01 0.03 0.06 0.07 0.11 0.14 0.18 0.20 0.21 0.22 0.20 0.18 0.19 0.16 0.17 0.13 0.10 0.11 0.16 0.19 0.21 0.19 0.17 0.18 0.20 0.24 0.29 0.34 0.40 0.42 0.38 0.34 0.36 0.37 0.35 0.32 0.24 0.23 0.26 0.30 0.30
0.02 0.02 0.02 0.03 0.03 0.06 0.10 0.12 0.16 0.16 0.16 0.19 0.20 0.21 0.20 0.18 0.16 0.14 0.11 0.11 0.11 0.10 0.11 0.13 0.13 0.13 0.14 0.17 0.23 0.28 0.39 0.53 0.60 0.58 0.51 0.45 0.45 0.44 0.38 0.34 0.30 0.30 0.34
0.03 0.04 0.03 0.03 0.03 0.06 0.10 0.12 0.13 0.13 0.12 0.17 0.22 0.22 0.24 0.24 0.21 0.17 0.14 0.15 0.14 0.13 0.13 0.13 0.13 0.11 0.09 0.11 0.15 0.20 0.27 0.39 0.55 0.71 0.74 0.65 0.58 0.53 0.45 0.40 0.37 0.36 0.40
0.04 0.04 0.06 0.08 0.06 0.08 0.11 0.14 0.17 0.17 0.16 0.19 0.23 0.28 0.30 0.30 0.29 0.26 0.25 0.26 0.24 0.20 0.18 0.18 0.19 0.16 0.15 0.15 0.16 0.17 0.18 0.22 0.31 0.49 0.69 0.79 0.75 0.62 0.55 0.48 0.42 0.41 0.41
0.04 0.05 0.06 0.10 0.10 0.09 0.14 0.17 0.21 0.23 0.26 0.31 0.37 0.39 0.42 0.44 0.44 0.35 0.31 0.32 0.34 0.32 0.31 0.33 0.32 0.28 0.25 0.24 0.26 0.26 0.25 0.25 0.26 0.31 0.41 0.58 0.74 0.72 0.65 0.57 0.51 0.50 0.52
0.06 0.07 0.10 0.12 0.16 0.17 0.19 0.24 0.34 0.39 0.48 0.57 0.59 0.54 0.49 0.48 0.48 0.47 0.45 0.46 0.50 0.52 0.55 0.51 0.45 0.43 0.40 0.34 0.38 0.43 0.42 0.41 0.36 0.31 0.31 0.35 0.49 0.64 0.70 0.64 0.60 0.61 0.61
0.11 0.11 0.15 0.20 0.22 0.26 0.32 0.40 0.49 0.60 0.78 0.95 0.94 0.88 0.80 0.77 0.74 0.70 0.68 0.73 0.74 0.75 0.72 0.65 0.61 0.59 0.49 0.46 0.45 0.44 0.45 0.51 0.52 0.47 0.44 0.41 0.40 0.45 0.56 0.64 0.66 0.66 0.64
0.13 0.14 0.18 0.23 0.30 0.34 0.40 0.49 0.59 0.71 0.80 0.86 0.82 0.84 0.85 0.86 0.85 0.83 0.83 0.82 0.82 0.82 0.81 0.80 0.77 0.74 0.72 0.63 0.51 0.43 0.44 0.48 0.55 0.61 0.61 0.46 0.34 0.41 0.46 0.55 0.58 0.58 0.55
0.14 0.15 0.19 0.22 0.28 0.36 0.43 0.53 0.57 0.59 0.67 0.68 0.63 0.58 0.59 0.59 0.59 0.62 0.67 0.71 0.76 0.77 0.77 0.73 0.65 0.62 0.58 0.53 0.47 0.44 0.48 0.51 0.50 0.58 0.66 0.61 0.51 0.48 0.50 0.49 0.46 0.45 0.43
0.17 0.16 0.18 0.20 0.24 0.28 0.32 0.35 0.36 0.39 0.45 0.47 0.45 0.41 0.40 0.41 0.42 0.47 0.57 0.67 0.71 0.66 0.61 0.58 0.58 0.59 0.58 0.55 0.45 0.42 0.48 0.53 0.49 0.51 0.56 0.60 0.56 0.47 0.39 0.42 0.38 0.35 0.36
0.16 0.14 0.13 0.15 0.16 0.18 0.20 0.23 0.27 0.31 0.35 0.37 0.36 0.35 0.36 0.37 0.39 0.43 0.47 0.50 0.52 0.52 0.50 0.46 0.48 0.53 0.57 0.56 0.43 0.40 0.46 0.52 0.51 0.55 0.61 0.65 0.59 0.46 0.34 0.38 0.42 0.36 0.32
0.15 0.12 0.10 0.11 0.13 0.15 0.18 0.21 0.22 0.24 0.24 0.25 0.27 0.27 0.28 0.32 0.33 0.36 0.38 0.41 0.44 0.43 0.41 0.39 0.41 0.46 0.47 0.43 0.31 0.28 0.36 0.43 0.47 0.47 0.50 0.60 0.54 0.42 0.30 0.32 0.37 0.32 0.33
0.12 0.11 0.10 0.10 0.12 0.15 0.17 0.19 0.19 0.18 0.17 0.19 0.22 0.24 0.26 0.28 0.30 0.34 0.35 0.35 0.34 0.32 0.32 0.33 0.34 0.40 0.44 0.35 0.26 0.18 0.21 0.31 0.39 0.49 0.53 0.60 0.58 0.44 0.36 0.31 0.30 0.25 0.23
0.10 0.09 0.09 0.09 0.11 0.13 0.15 0.18 0.18 0.17 0.18 0.21 0.22 0.23 0.24 0.27 0.31 0.35 0.36 0.37 0.37 0.36 0.33 0.30 0.27 0.29 0.38 0.37 0.19 0.14 0.13 0.21 0.34 0.55 0.70 0.74 0.70 0.60 0.49 0.42 0.40 0.31 0.26
0.07 0.08 0.08 0.09 0.10 0.11 0.13 0.16 0.17 0.19 0.21 0.22 0.21 0.21 0.21 0.21 0.25 0.32 0.36 0.37 0.37 0.36 0.33 0.31 0.31 0.31 0.36 0.37 0.32 0.25 0.17 0.17 0.26 0.47 0.66 0.79 0.85 0.81 0.70 0.61 0.55 0.41 0.35
0.07 0.07 0.08 0.09 0.09 0.09 0.10 0.11 0.15 0.19 0.22 0.23 0.21 0.20 0.18 0.19 0.22 0.27 0.29 0.26 0.28 0.25 0.23 0.24 0.26 0.29 0.30 0.25 0.19 0.19 0.19 0.19 0.23 0.39 0.66 0.87 1.01 1.05 1.03 0.91 0.81 0.70 0.58
0.10 0.09 0.09 0.08 0.08 0.07 0.07 0.08 0.10 0.17 0.24 0.27 0.24 0.21 0.19 0.20 0.22 0.23 0.24 0.23 0.20 0.18 0.19 0.20 0.18 0.14 0.15 0.13 0.10 0.09 0.10 0.12 0.18 0.37 0.63 0.86 1.04 1.11 1.22 1.23 1.15 0.99 0.84